| time (UTC) | temp F | wind direction | speed MPH | gust MPH | rain 1hr in | rain 24hr in | rain mn in | humidity % | barometer mb |
| 20260905205003 | 90 | 118 | 4.0 | 7.0 | 0.00 | 0.00 | 0.00 | 66 | 1005.3 |
| 20260905204903 | 91 | 111 | 4.0 | 7.0 | 0.00 | 0.00 | 0.00 | 67 | 1005.3 |
| 20260905204804 | 91 | 123 | 4.0 | 7.0 | 0.00 | 0.00 | 0.00 | 66 | 1005.3 |
| 20260905204704 | 91 | 182 | 4.0 | 7.0 | 0.00 | 0.00 | 0.00 | 66 | 1005.3 |
| 20260905204604 | 91 | 164 | 4.0 | 7.0 | 0.00 | 0.00 | 0.00 | 66 | 1005.4 |
| 20260905204505 | 91 | 162 | 4.0 | 7.0 | 0.00 | 0.00 | 0.00 | 67 | 1005.3 |
| 20260905204403 | 91 | 138 | 3.0 | 7.0 | 0.00 | 0.00 | 0.00 | 68 | 1005.3 |
| 20260905204303 | 91 | 165 | 2.0 | 7.0 | 0.00 | 0.00 | 0.00 | 67 | 1005.4 |
| 20260905204204 | 91 | 158 | 2.0 | 7.0 | 0.00 | 0.00 | 0.00 | 67 | 1005.3 |
| 20260905204103 | 91 | 134 | 3.0 | 7.0 | 0.00 | 0.00 | 0.00 | 67 | 1005.4 |
| 20260905204003 | 91 | 172 | 3.0 | 7.0 | 0.00 | 0.00 | 0.00 | 66 | 1005.3 |
| 20260905203902 | 91 | 134 | 3.0 | 7.0 | 0.00 | 0.00 | 0.00 | 66 | 1005.3 |
| 20260905203804 | 91 | 155 | 4.0 | 7.0 | 0.00 | 0.00 | 0.00 | 65 | 1005.4 |
| 20260905203705 | 91 | 169 | 4.0 | 7.0 | 0.00 | 0.00 | 0.00 | 65 | 1005.3 |
| 20260905203604 | 91 | 169 | 5.0 | 7.0 | 0.00 | 0.00 | 0.00 | 64 | 1005.3 |
| 20260905203503 | 92 | 135 | 4.0 | 6.0 | 0.00 | 0.00 | 0.00 | 64 | 1005.4 |
| 20260905203402 | 92 | 147 | 3.0 | 5.0 | 0.00 | 0.00 | 0.00 | 64 | 1005.4 |
| 20260905203304 | 92 | 164 | 3.0 | 5.0 | 0.00 | 0.00 | 0.00 | 62 | 1005.5 |
| 20260905203202 | 92 | 140 | 3.0 | 5.0 | 0.00 | 0.00 | 0.00 | 62 | 1005.5 |
| 20260905203103 | 93 | 161 | 2.0 | 4.0 | 0.00 | 0.00 | 0.00 | 62 | 1005.4 |
| 20260905203002 | 93 | 145 | 1.0 | 3.0 | 0.00 | 0.00 | 0.00 | 61 | 1005.5 |
| 20260905202902 | 93 | 93 | 0.0 | 3.0 | 0.00 | 0.00 | 0.00 | 61 | 1005.4 |
| 20260905202803 | 92 | 83 | 0.0 | 3.0 | 0.00 | 0.00 | 0.00 | 61 | 1005.4 |
| 20260905202703 | 92 | 83 | 0.0 | 3.0 | 0.00 | 0.00 | 0.00 | 61 | 1005.4 |
| 20260905202603 | 92 | 82 | 0.0 | 3.0 | 0.00 | 0.00 | 0.00 | 65 | 1005.3 |
| 20260905202504 | 91 | 80 | 0.0 | 4.0 | 0.00 | 0.00 | 0.00 | 65 | 1005.3 |
| 20260905202403 | 91 | 72 | 2.0 | 4.0 | 0.00 | 0.00 | 0.00 | 65 | 1005.3 |
| 20260905202306 | 91 | 72 | 2.0 | 4.0 | 0.00 | 0.00 | 0.00 | 65 | 1005.3 |
| 20260905202203 | 91 | 72 | 2.0 | 4.0 | 0.00 | 0.00 | 0.00 | 65 | 1005.4 |
| 20260905202104 | 91 | 72 | 2.0 | 4.0 | 0.00 | 0.00 | 0.00 | 65 | 1005.4 |
| 20260905202003 | 91 | 72 | 2.0 | 4.0 | 0.00 | 0.00 | 0.00 | 65 | 1005.4 |
| 20260905201903 | 91 | 68 | 2.0 | 4.0 | 0.00 | 0.00 | 0.00 | 64 | 1005.4 |
| 20260905201803 | 91 | 69 | 2.0 | 4.0 | 0.00 | 0.00 | 0.00 | 64 | 1005.5 |
| 20260905201704 | 91 | 69 | 2.0 | 4.0 | 0.00 | 0.00 | 0.00 | 64 | 1005.4 |
| 20260905201604 | 91 | 69 | 3.0 | 4.0 | 0.00 | 0.00 | 0.00 | 64 | 1005.5 |
| 20260905201504 | 91 | 73 | 3.0 | 4.0 | 0.00 | 0.00 | 0.00 | 64 | 1005.5 |
| 20260905201403 | 92 | 66 | 2.0 | 4.0 | 0.00 | 0.00 | 0.00 | 67 | 1005.6 |
| 20260905201304 | 92 | 83 | 0.0 | 1.0 | 0.00 | 0.00 | 0.00 | 67 | 1005.6 |
| 20260905201204 | 92 | 82 | 0.0 | 1.0 | 0.00 | 0.00 | 0.00 | 67 | 1005.5 |
| 20260905201103 | 92 | 113 | 0.0 | 1.0 | 0.00 | 0.00 | 0.00 | 62 | 1005.6 |
| 20260905201005 | 92 | 117 | 0.0 | 0.0 | 0.00 | 0.00 | 0.00 | 61 | 1005.6 |
| 20260905200904 | 92 | 118 | 0.0 | 0.0 | 0.00 | 0.00 | 0.00 | 61 | 1005.7 |
| 20260905200802 | 92 | 121 | 0.0 | 0.0 | 0.00 | 0.00 | 0.00 | 61 | 1005.6 |
| 20260905200704 | 0 | 0.0 | 0.0 | 0.00 | 0.00 | 0.00 | 1005.6 | ||
| 20260905200604 | 93 | 92 | 0.0 | 0.0 | 0.00 | 0.00 | 0.00 | 60 | 1005.8 |
| 20260905200504 | 93 | 92 | 0.0 | 0.0 | 0.00 | 0.00 | 0.00 | 60 | 1005.7 |
| 20260905200403 | 93 | 92 | 0.0 | 0.0 | 0.00 | 0.00 | 0.00 | 60 | 1005.7 |
| 20260905200303 | 93 | 92 | 0.0 | 0.0 | 0.00 | 0.00 | 0.00 | 60 | 1005.7 |
| 20260905200203 | 93 | 92 | 0.0 | 0.0 | 0.00 | 0.00 | 0.00 | 60 | 1005.7 |
| 20260905200104 | 93 | 92 | 0.0 | 1.0 | 0.00 | 0.00 | 0.00 | 60 | 1005.6 |
| 20260905200005 | 93 | 92 | 0.0 | 1.0 | 0.00 | 0.00 | 0.00 | 60 | 1005.7 |
| 20260905195903 | 93 | 92 | 0.0 | 3.0 | 0.00 | 0.00 | 0.00 | 60 | 1005.7 |
| 20260905195803 | 93 | 92 | 0.0 | 4.0 | 0.00 | 0.00 | 0.00 | 60 | 1005.7 |
| 20260905195703 | 93 | 92 | 0.0 | 4.0 | 0.00 | 0.00 | 0.00 | 60 | 1005.7 |
| 20260905195604 | 93 | 92 | 0.0 | 4.0 | 0.00 | 0.00 | 0.00 | 60 | 1005.7 |
| 20260905195503 | 93 | 92 | 0.0 | 4.0 | 0.00 | 0.00 | 0.00 | 60 | 1005.8 |
| 20260905195404 | 93 | 92 | 0.0 | 4.0 | 0.00 | 0.00 | 0.00 | 60 | 1005.8 |
| 20260905195306 | 93 | 92 | 1.0 | 4.0 | 0.00 | 0.00 | 0.00 | 60 | 1005.9 |
| 20260905195204 | 93 | 92 | 1.0 | 4.0 | 0.00 | 0.00 | 0.00 | 60 | 1005.9 |
| 20260905195102 | 93 | 92 | 2.0 | 4.0 | 0.00 | 0.00 | 0.00 | 60 | 1005.9 |
| 20260905195004 | 93 | 92 | 2.0 | 4.0 | 0.00 | 0.00 | 0.00 | 60 | 1005.9 |
| 20260905194903 | 93 | 92 | 1.0 | 4.0 | 0.00 | 0.00 | 0.00 | 59 | 1005.9 |
| 20260905194803 | 93 | 83 | 0.0 | 0.0 | 0.00 | 0.00 | 0.00 | 59 | 1006.0 |
| 20260905194703 | 93 | 83 | 0.0 | 0.0 | 0.00 | 0.00 | 0.00 | 59 | 1005.9 |
| 20260905194602 | 93 | 83 | 0.0 | 0.0 | 0.00 | 0.00 | 0.00 | 59 | 1006.0 |
| 20260905194503 | 93 | 83 | 0.0 | 0.0 | 0.00 | 0.00 | 0.00 | 59 | 1005.9 |
| 20260905194402 | 93 | 79 | 0.0 | 0.0 | 0.00 | 0.00 | 0.00 | 59 | 1005.9 |
| 20260905194302 | 93 | 79 | 0.0 | 0.0 | 0.00 | 0.00 | 0.00 | 59 | 1005.9 |
| 20260905194203 | 93 | 66 | 0.0 | 0.0 | 0.00 | 0.00 | 0.00 | 59 | 1005.9 |
| 20260905194103 | 93 | 61 | 0.0 | 0.0 | 0.00 | 0.00 | 0.00 | 59 | 1005.9 |
| 20260905194003 | 93 | 10 | 0.0 | 0.0 | 0.00 | 0.00 | 0.00 | 59 | 1005.9 |
| 20260905193903 | 93 | 10 | 0.0 | 0.0 | 0.00 | 0.00 | 0.00 | 58 | 1006.0 |
| 20260905193804 | 93 | 10 | 0.0 | 0.0 | 0.00 | 0.00 | 0.00 | 58 | 1006.0 |
| 20260905193705 | 93 | 10 | 0.0 | 0.0 | 0.00 | 0.00 | 0.00 | 58 | 1006.0 |
| 20260905193602 | 93 | 10 | 0.0 | 0.0 | 0.00 | 0.00 | 0.00 | 58 | 1006.0 |
| 20260905193504 | 94 | 293 | 0.0 | 0.0 | 0.00 | 0.00 | 0.00 | 59 | 1006.0 |
| 20260905193403 | 94 | 293 | 0.0 | 0.0 | 0.00 | 0.00 | 0.00 | 59 | 1006.1 |
| 20260905193303 | 93 | 293 | 0.0 | 0.0 | 0.00 | 0.00 | 0.00 | 59 | 1006.0 |
| 20260905193204 | 93 | 293 | 0.0 | 0.0 | 0.00 | 0.00 | 0.00 | 59 | 1006.0 |
| 20260905193103 | 93 | 293 | 0.0 | 0.0 | 0.00 | 0.00 | 0.00 | 59 | 1006.0 |
| 20260905193003 | 93 | 293 | 0.0 | 0.0 | 0.00 | 0.00 | 0.00 | 60 | 1006.1 |
| 20260905192903 | 93 | 281 | 0.0 | 0.0 | 0.00 | 0.00 | 0.00 | 61 | 1006.1 |
| 20260905192803 | 93 | 281 | 0.0 | 0.0 | 0.00 | 0.00 | 0.00 | 61 | 1006.1 |
| 20260905192703 | 93 | 254 | 0.0 | 0.0 | 0.00 | 0.00 | 0.00 | 61 | 1006.1 |
| 20260905192603 | 93 | 157 | 0.0 | 0.0 | 0.00 | 0.00 | 0.00 | 60 | 1006.1 |
| 20260905192504 | 93 | 155 | 0.0 | 0.0 | 0.00 | 0.00 | 0.00 | 60 | 1006.0 |
| 20260905192403 | 93 | 155 | 0.0 | 0.0 | 0.00 | 0.01 | 0.00 | 60 | 1006.1 |
| 20260905192306 | 93 | 155 | 0.0 | 0.0 | 0.00 | 0.01 | 0.00 | 60 | 1006.1 |
| 20260905192203 | 93 | 155 | 0.0 | 1.0 | 0.00 | 0.01 | 0.00 | 61 | 1006.2 |
| 20260905192104 | 93 | 155 | 0.0 | 2.0 | 0.00 | 0.01 | 0.00 | 61 | 1006.2 |
| 20260905192005 | 93 | 155 | 0.0 | 2.0 | 0.00 | 0.01 | 0.00 | 61 | 1006.2 |
| 20260905191902 | 93 | 155 | 0.0 | 2.0 | 0.00 | 0.01 | 0.00 | 61 | 1006.2 |
| 20260905191803 | 93 | 152 | 0.0 | 3.0 | 0.00 | 0.01 | 0.00 | 61 | 1006.3 |
| 20260905191704 | 92 | 151 | 0.0 | 3.0 | 0.00 | 0.01 | 0.00 | 61 | 1006.3 |
| 20260905191602 | 92 | 151 | 0.0 | 3.0 | 0.00 | 0.01 | 0.00 | 61 | 1006.2 |
| 20260905191503 | 92 | 7 | 0.0 | 3.0 | 0.00 | 0.01 | 0.00 | 61 | 1006.2 |
| 20260905191403 | 92 | 1 | 0.0 | 3.0 | 0.00 | 0.01 | 0.00 | 61 | 1006.2 |
| 20260905191302 | 92 | 1 | 1.0 | 4.0 | 0.00 | 0.01 | 0.00 | 61 | 1006.3 |
| 20260905191204 | 92 | 1 | 1.0 | 4.0 | 0.00 | 0.01 | 0.00 | 61 | 1006.3 |
| 20260905191104 | 92 | 1 | 2.0 | 4.0 | 0.00 | 0.01 | 0.00 | 61 | 1006.2 |
| 20260905191005 | 92 | 1 | 2.0 | 4.0 | 0.00 | 0.01 | 0.00 | 61 | 1006.3 |
| 20260905190903 | 92 | 1 | 1.0 | 4.0 | 0.00 | 0.01 | 0.00 | 62 | 1006.3 |
| 20260905190803 | 92 | 1 | 0.0 | 4.0 | 0.00 | 0.01 | 0.00 | 63 | 1006.3 |
| 20260905190703 | 92 | 1 | 1.0 | 4.0 | 0.00 | 0.01 | 0.00 | 63 | 1006.3 |
| 20260905190539 | 92 | 1 | 1.0 | 4.0 | 0.00 | 0.01 | 0.00 | 62 | 1006.3 |
| 20260905190436 | 92 | 1 | 2.0 | 4.0 | 0.00 | 0.01 | 0.00 | 62 | 1006.3 |
| 20260905190332 | 92 | 0 | 2.0 | 4.0 | 0.00 | 0.01 | 0.00 | 61 | 1006.4 |
| 20260905190232 | 92 | 0 | 2.0 | 3.0 | 0.00 | 0.01 | 0.00 | 61 | 1006.4 |
| 20260905190132 | 92 | 0 | 2.0 | 3.0 | 0.00 | 0.01 | 0.00 | 63 | 1006.4 |
| 20260905190012 | 92 | 34 | 2.0 | 2.0 | 0.00 | 0.01 | 0.00 | 63 | 1006.4 |
| 20260905185911 | 92 | 34 | 1.0 | 2.0 | 0.00 | 0.01 | 0.00 | 63 | 1006.5 |
| 20260905185810 | 93 | 37 | 0.0 | 0.0 | 0.00 | 0.01 | 0.00 | 63 | 1006.5 |
| 20260905185710 | 0 | 0.0 | 0.0 | 0.00 | 0.01 | 0.00 | 1006.5 | ||
| 20260905185610 | 0 | 0.0 | 0.0 | 0.00 | 0.01 | 0.00 | 1006.5 | ||
| 20260905185510 | 0 | 0.0 | 0.0 | 0.00 | 0.01 | 0.00 | 1006.5 | ||
| 20260905185410 | 0 | 0.0 | 0.0 | 0.00 | 0.01 | 0.00 | 1006.4 | ||
| 20260905185310 | 0 | 0.0 | 0.0 | 0.00 | 0.01 | 0.00 | 1006.4 | ||
| 20260905185210 | 92 | 38 | 4.0 | 3.0 | 0.00 | 0.01 | 0.00 | 63 | 1006.4 |
| 20260905185109 | 92 | 38 | 4.0 | 5.0 | 0.00 | 0.01 | 0.00 | 63 | 1006.4 |
| 20260905185008 | 92 | 38 | 4.0 | 5.0 | 0.00 | 0.01 | 0.00 | 63 | 1006.5 |
| 20260905184909 | 92 | 38 | 4.0 | 5.0 | 0.00 | 0.01 | 0.00 | 63 | 1006.5 |
| 20260905184806 | 92 | 38 | 4.0 | 6.0 | 0.00 | 0.01 | 0.00 | 63 | 1006.5 |
| 20260905184706 | 92 | 38 | 4.0 | 7.0 | 0.00 | 0.01 | 0.00 | 63 | 1006.5 |
| 20260905184605 | 92 | 38 | 4.0 | 7.0 | 0.00 | 0.01 | 0.00 | 63 | 1006.5 |
| 20260905184506 | 92 | 38 | 4.0 | 7.0 | 0.00 | 0.01 | 0.00 | 63 | 1006.5 |
| 20260905184405 | 92 | 38 | 4.0 | 7.0 | 0.00 | 0.01 | 0.00 | 63 | 1006.6 |
| 20260905184305 | 92 | 38 | 4.0 | 7.0 | 0.00 | 0.01 | 0.00 | 63 | 1006.6 |
| 20260905184205 | 92 | 32 | 5.0 | 7.0 | 0.00 | 0.01 | 0.00 | 62 | 1006.6 |
| 20260905184105 | 92 | 0 | 5.0 | 7.0 | 0.00 | 0.01 | 0.00 | 62 | 1006.6 |
| 20260905184005 | 92 | 1 | 5.0 | 7.0 | 0.00 | 0.01 | 0.00 | 62 | 1006.6 |
| 20260905183908 | 92 | 0 | 5.0 | 7.0 | 0.00 | 0.01 | 0.00 | 62 | 1006.7 |
| 20260905183805 | 93 | 10 | 6.0 | 7.0 | 0.00 | 0.01 | 0.00 | 62 | 1006.6 |
| 20260905183707 | 93 | 8 | 6.0 | 7.0 | 0.00 | 0.01 | 0.00 | 62 | 1006.7 |
| 20260905183605 | 93 | 337 | 5.0 | 9.0 | 0.00 | 0.01 | 0.00 | 63 | 1006.7 |
| 20260905183508 | 93 | 314 | 5.0 | 9.0 | 0.00 | 0.01 | 0.00 | 63 | 1006.7 |
| 20260905183405 | 93 | 326 | 3.0 | 9.0 | 0.00 | 0.01 | 0.00 | 63 | 1006.7 |
| 20260905183306 | 93 | 345 | 2.0 | 9.0 | 0.00 | 0.01 | 0.00 | 63 | 1006.7 |
| 20260905183207 | 93 | 38 | 2.0 | 9.0 | 0.00 | 0.01 | 0.00 | 63 | 1006.8 |
| 20260905183105 | 93 | 0 | 4.0 | 9.0 | 0.00 | 0.01 | 0.00 | 62 | 1006.7 |
| 20260905183006 | 93 | 0 | 4.0 | 9.0 | 0.00 | 0.01 | 0.00 | 63 | 1006.7 |
| 20260905182906 | 93 | 347 | 3.0 | 9.0 | 0.00 | 0.01 | 0.00 | 62 | 1006.7 |
| 20260905182805 | 93 | 47 | 6.0 | 9.0 | 0.00 | 0.01 | 0.00 | 62 | 1006.7 |
| 20260905182705 | 93 | 320 | 6.0 | 9.0 | 0.00 | 0.01 | 0.00 | 63 | 1006.7 |
| 20260905182607 | 93 | 290 | 5.0 | 7.0 | 0.00 | 0.01 | 0.00 | 64 | 1006.7 |
| 20260905182505 | 93 | 268 | 4.0 | 6.0 | 0.00 | 0.01 | 0.00 | 64 | 1006.7 |
| 20260905182405 | 93 | 285 | 4.0 | 6.0 | 0.00 | 0.01 | 0.00 | 64 | 1006.7 |
| 20260905182307 | 93 | 258 | 4.0 | 6.0 | 0.00 | 0.01 | 0.00 | 64 | 1006.8 |
| 20260905182205 | 93 | 285 | 2.0 | 6.0 | 0.00 | 0.01 | 0.00 | 61 | 1006.8 |
| 20260905182104 | 93 | 282 | 2.0 | 6.0 | 0.00 | 0.01 | 0.00 | 63 | 1006.8 |
| 20260905182005 | 93 | 282 | 4.0 | 6.0 | 0.00 | 0.01 | 0.00 | 63 | 1006.9 |
| 20260905181904 | 93 | 283 | 4.0 | 6.0 | 0.00 | 0.01 | 0.00 | 63 | 1006.9 |
| 20260905181807 | 93 | 279 | 2.0 | 6.0 | 0.00 | 0.01 | 0.00 | 62 | 1007.0 |
| 20260905181706 | 93 | 323 | 2.0 | 6.0 | 0.00 | 0.01 | 0.00 | 62 | 1007.0 |
| 20260905181605 | 93 | 65 | 2.0 | 6.0 | 0.00 | 0.01 | 0.00 | 62 | 1007.0 |
| 20260905181505 | 93 | 65 | 4.0 | 6.0 | 0.00 | 0.01 | 0.00 | 62 | 1007.1 |
| 20260905181405 | 93 | 62 | 4.0 | 6.0 | 0.00 | 0.01 | 0.00 | 62 | 1007.1 |
| 20260905181305 | 93 | 123 | 3.0 | 4.0 | 0.00 | 0.01 | 0.00 | 63 | 1007.1 |
| 20260905181204 | 92 | 176 | 2.0 | 4.0 | 0.00 | 0.01 | 0.00 | 62 | 1007.2 |
| 20260905181105 | 92 | 186 | 2.0 | 4.0 | 0.00 | 0.01 | 0.00 | 62 | 1007.4 |
| 20260905181005 | 92 | 197 | 2.0 | 4.0 | 0.00 | 0.01 | 0.00 | 62 | 1007.2 |
| 20260905180904 | 92 | 209 | 2.0 | 4.0 | 0.00 | 0.01 | 0.00 | 63 | 1007.3 |
| 20260905180805 | 92 | 203 | 2.0 | 3.0 | 0.00 | 0.01 | 0.00 | 63 | 1007.3 |
| 20260905180705 | 92 | 203 | 2.0 | 3.0 | 0.00 | 0.01 | 0.00 | 63 | 1007.4 |
| 20260905180604 | 92 | 203 | 1.0 | 3.0 | 0.00 | 0.01 | 0.00 | 63 | 1007.3 |
| 20260905180504 | 92 | 107 | 0.0 | 3.0 | 0.00 | 0.01 | 0.00 | 63 | 1007.4 |
| 20260905180404 | 92 | 107 | 0.0 | 4.0 | 0.00 | 0.01 | 0.00 | 63 | 1007.4 |
| 20260905180305 | 92 | 106 | 0.0 | 4.0 | 0.00 | 0.01 | 0.00 | 63 | 1007.4 |
| 20260905180204 | 93 | 106 | 0.0 | 4.0 | 0.00 | 0.01 | 0.00 | 63 | 1007.4 |
| 20260905180104 | 93 | 106 | 0.0 | 4.0 | 0.00 | 0.01 | 0.00 | 63 | 1007.4 |
| 20260905180004 | 93 | 106 | 0.0 | 4.0 | 0.00 | 0.01 | 0.00 | 63 | 1007.4 |
| 20260905175907 | 92 | 94 | 0.0 | 4.0 | 0.00 | 0.01 | 0.00 | 64 | 1007.4 |
| 20260905175804 | 93 | 93 | 1.0 | 4.0 | 0.00 | 0.01 | 0.00 | 64 | 1007.5 |
| 20260905175707 | 93 | 93 | 2.0 | 5.0 | 0.00 | 0.01 | 0.00 | 63 | 1007.4 |
| 20260905175605 | 93 | 90 | 2.0 | 5.0 | 0.00 | 0.01 | 0.00 | 63 | 1007.5 |
| 20260905175504 | 93 | 87 | 2.0 | 7.0 | 0.00 | 0.01 | 0.00 | 64 | 1007.5 |
| 20260905175404 | 93 | 92 | 1.0 | 7.0 | 0.00 | 0.01 | 0.00 | 63 | 1007.5 |
| 20260905175306 | 93 | 93 | 0.0 | 7.0 | 0.00 | 0.01 | 0.00 | 63 | 1007.6 |
| 20260905175204 | 93 | 94 | 0.0 | 7.0 | 0.00 | 0.01 | 0.00 | 64 | 1007.6 |
| 20260905175104 | 92 | 316 | 1.0 | 7.0 | 0.00 | 0.01 | 0.00 | 65 | 1007.6 |
| 20260905175004 | 92 | 329 | 3.0 | 7.0 | 0.00 | 0.01 | 0.00 | 64 | 1007.7 |
| 20260905174904 | 92 | 334 | 4.0 | 7.0 | 0.00 | 0.01 | 0.00 | 64 | 1007.7 |
| 20260905174805 | 92 | 336 | 4.0 | 7.0 | 0.00 | 0.01 | 0.00 | 64 | 1007.7 |
| 20260905174706 | 92 | 353 | 5.0 | 7.0 | 0.00 | 0.01 | 0.00 | 64 | 1007.8 |
| 20260905174604 | 92 | 6 | 5.0 | 7.0 | 0.00 | 0.01 | 0.00 | 64 | 1007.7 |
| 20260905174507 | 92 | 338 | 3.0 | 7.0 | 0.00 | 0.01 | 0.00 | 65 | 1007.8 |
| 20260905174405 | 92 | 54 | 1.0 | 7.0 | 0.00 | 0.01 | 0.00 | 64 | 1007.8 |
| 20260905174305 | 92 | 49 | 3.0 | 7.0 | 0.00 | 0.01 | 0.00 | 64 | 1007.7 |
| 20260905174204 | 92 | 24 | 5.0 | 7.0 | 0.00 | 0.01 | 0.00 | 65 | 1007.8 |
| 20260905174104 | 92 | 1 | 5.0 | 7.0 | 0.00 | 0.01 | 0.00 | 64 | 1007.8 |
| 20260905174006 | 92 | 25 | 5.0 | 7.0 | 0.00 | 0.01 | 0.00 | 64 | 1007.8 |
| 20260905173904 | 92 | 7 | 5.0 | 7.0 | 0.00 | 0.01 | 0.00 | 65 | 1007.7 |
| 20260905173803 | 92 | 20 | 3.0 | 7.0 | 0.00 | 0.01 | 0.00 | 65 | 1007.8 |
| 20260905173705 | 91 | 351 | 1.0 | 5.0 | 0.00 | 0.01 | 0.00 | 65 | 1007.8 |
| 20260905173604 | 91 | 219 | 0.0 | 5.0 | 0.00 | 0.01 | 0.00 | 65 | 1007.8 |
| 20260905173504 | 91 | 219 | 0.0 | 5.0 | 0.00 | 0.01 | 0.00 | 66 | 1007.8 |
| 20260905173405 | 91 | 219 | 1.0 | 5.0 | 0.00 | 0.01 | 0.00 | 67 | 1007.8 |
| 20260905173303 | 91 | 219 | 3.0 | 5.0 | 0.00 | 0.01 | 0.00 | 67 | 1007.9 |
| 20260905173203 | 90 | 173 | 2.0 | 5.0 | 0.00 | 0.01 | 0.00 | 67 | 1007.9 |
| 20260905173104 | 90 | 144 | 2.0 | 5.0 | 0.00 | 0.01 | 0.00 | 67 | 1007.9 |
| 20260905173003 | 90 | 142 | 3.0 | 5.0 | 0.00 | 0.01 | 0.00 | 67 | 1007.9 |
| 20260905172904 | 90 | 252 | 2.0 | 5.0 | 0.00 | 0.01 | 0.00 | 67 | 1007.9 |
| 20260905172804 | 90 | 272 | 1.0 | 6.0 | 0.00 | 0.01 | 0.00 | 67 | 1007.9 |
| 20260905172704 | 89 | 329 | 2.0 | 6.0 | 0.00 | 0.01 | 0.00 | 67 | 1007.9 |
| 20260905172604 | 90 | 327 | 4.0 | 6.0 | 0.00 | 0.01 | 0.00 | 67 | 1007.9 |
| 20260905172506 | 90 | 326 | 4.0 | 6.0 | 0.00 | 0.01 | 0.00 | 67 | 1008.0 |
| 20260905172403 | 90 | 303 | 4.0 | 6.0 | 0.00 | 0.01 | 0.00 | 66 | 1008.0 |
| 20260905172305 | 90 | 293 | 4.0 | 6.0 | 0.00 | 0.01 | 0.00 | 66 | 1008.0 |
| 20260905172203 | 90 | 295 | 4.0 | 7.0 | 0.00 | 0.01 | 0.00 | 66 | 1008.0 |
| 20260905172104 | 90 | 306 | 4.0 | 7.0 | 0.00 | 0.01 | 0.00 | 66 | 1008.0 |
| 20260905172004 | 91 | 321 | 5.0 | 7.0 | 0.00 | 0.01 | 0.00 | 66 | 1007.9 |
| 20260905171905 | 91 | 327 | 5.0 | 7.0 | 0.00 | 0.01 | 0.00 | 66 | 1008.0 |
| 20260905171803 | 91 | 303 | 5.0 | 7.0 | 0.00 | 0.01 | 0.00 | 67 | 1008.0 |
| 20260905171704 | 91 | 324 | 5.0 | 7.0 | 0.00 | 0.01 | 0.00 | 66 | 1007.9 |
| 20260905171605 | 91 | 348 | 4.0 | 7.0 | 0.00 | 0.01 | 0.00 | 66 | 1007.9 |
| 20260905171505 | 91 | 327 | 4.0 | 7.0 | 0.00 | 0.01 | 0.00 | 66 | 1008.0 |
| 20260905171403 | 91 | 324 | 6.0 | 7.0 | 0.00 | 0.01 | 0.00 | 66 | 1008.0 |
| 20260905171304 | 91 | 337 | 5.0 | 7.0 | 0.00 | 0.01 | 0.00 | 68 | 1008.0 |
| 20260905171203 | 91 | 288 | 4.0 | 5.0 | 0.00 | 0.01 | 0.00 | 67 | 1008.0 |
| 20260905171104 | 91 | 262 | 3.0 | 5.0 | 0.00 | 0.01 | 0.00 | 66 | 1008.1 |
| 20260905171005 | 91 | 257 | 2.0 | 5.0 | 0.00 | 0.01 | 0.00 | 66 | 1008.0 |
| 20260905170903 | 92 | 251 | 0.0 | 0.0 | 0.00 | 0.01 | 0.00 | 64 | 1008.0 |
| 20260905170805 | 92 | 223 | 0.0 | 4.0 | 0.00 | 0.01 | 0.00 | 64 | 1008.1 |
| 20260905170703 | 92 | 221 | 0.0 | 5.0 | 0.00 | 0.01 | 0.00 | 64 | 1008.0 |
| 20260905170603 | 92 | 221 | 0.0 | 5.0 | 0.00 | 0.02 | 0.00 | 65 | 1008.0 |
| 20260905170505 | 91 | 223 | 0.0 | 5.0 | 0.00 | 0.02 | 0.00 | 66 | 1008.0 |
| 20260905170403 | 91 | 231 | 0.0 | 5.0 | 0.00 | 0.02 | 0.00 | 66 | 1008.0 |
| 20260905170303 | 91 | 231 | 0.0 | 5.0 | 0.00 | 0.02 | 0.00 | 66 | 1008.1 |
| 20260905170159 | 91 | 231 | 0.0 | 5.0 | 0.00 | 0.02 | 0.00 | 67 | 1008.0 |
| 20260905170058 | 91 | 234 | 0.0 | 5.0 | 0.00 | 0.02 | 0.00 | 67 | 1008.0 |
| 20260905165947 | 91 | 235 | 3.0 | 5.0 | 0.00 | 0.02 | 0.00 | 67 | 1008.0 |
| 20260905165840 | 90 | 254 | 2.0 | 5.0 | 0.00 | 0.02 | 0.00 | 67 | 1008.1 |
| 20260905165738 | 90 | 262 | 0.0 | 5.0 | 0.00 | 0.02 | 0.00 | 67 | 1008.1 |
| 20260905165636 | 90 | 303 | 0.0 | 3.0 | 0.00 | 0.02 | 0.00 | 67 | 1008.2 |
| 20260905165533 | 90 | 275 | 0.0 | 4.0 | 0.00 | 0.02 | 0.00 | 67 | 1008.2 |
| 20260905165434 | 90 | 275 | 0.0 | 4.0 | 0.00 | 0.02 | 0.00 | 67 | 1008.2 |
| 20260905165332 | 90 | 275 | 0.0 | 5.0 | 0.00 | 0.02 | 0.00 | 67 | 1008.2 |
| 20260905165232 | 90 | 275 | 0.0 | 5.0 | 0.00 | 0.02 | 0.00 | 68 | 1008.3 |
| 20260905165132 | 90 | 275 | 0.0 | 5.0 | 0.00 | 0.02 | 0.00 | 68 | 1008.3 |
| 20260905165030 | 90 | 279 | 1.0 | 6.0 | 0.00 | 0.02 | 0.00 | 67 | 1008.3 |
| 20260905164926 | 89 | 279 | 2.0 | 7.0 | 0.00 | 0.02 | 0.00 | 67 | 1008.3 |
| 20260905164823 | 89 | 279 | 3.0 | 7.0 | 0.00 | 0.02 | 0.00 | 67 | 1008.2 |
| 20260905164704 | 89 | 282 | 3.0 | 7.0 | 0.00 | 0.02 | 0.00 | 67 | 1008.3 |
| 20260905164603 | 89 | 282 | 3.0 | 7.0 | 0.00 | 0.02 | 0.00 | 68 | 1008.3 |
| 20260905164504 | 89 | 292 | 3.0 | 7.0 | 0.00 | 0.02 | 0.00 | 67 | 1008.3 |
| 20260905164404 | 89 | 293 | 4.0 | 7.0 | 0.00 | 0.02 | 0.00 | 69 | 1008.3 |
| 20260905164303 | 89 | 274 | 5.0 | 7.0 | 0.00 | 0.02 | 0.00 | 69 | 1008.3 |
| 20260905164203 | 89 | 285 | 5.0 | 7.0 | 0.00 | 0.02 | 0.00 | 68 | 1008.3 |
| 20260905164104 | 89 | 293 | 5.0 | 7.0 | 0.00 | 0.02 | 0.00 | 68 | 1008.3 |
| 20260905164003 | 90 | 296 | 5.0 | 7.0 | 0.00 | 0.02 | 0.00 | 71 | 1008.3 |
| 20260905163904 | 89 | 290 | 2.0 | 5.0 | 0.00 | 0.02 | 0.00 | 71 | 1008.3 |
| 20260905163803 | 89 | 327 | 0.0 | 5.0 | 0.00 | 0.02 | 0.00 | 71 | 1008.3 |
| 20260905163703 | 89 | 327 | 0.0 | 4.0 | 0.00 | 0.03 | 0.00 | 71 | 1008.3 |
| 20260905163603 | 88 | 320 | 0.0 | 4.0 | 0.00 | 0.03 | 0.00 | 71 | 1008.4 |
| 20260905163504 | 88 | 320 | 0.0 | 4.0 | 0.00 | 0.03 | 0.00 | 71 | 1008.4 |
| 20260905163404 | 89 | 320 | 0.0 | 4.0 | 0.00 | 0.03 | 0.00 | 71 | 1008.4 |
| 20260905163301 | 89 | 321 | 0.0 | 5.0 | 0.00 | 0.03 | 0.00 | 71 | 1008.4 |
| 20260905163205 | 88 | 317 | 1.0 | 5.0 | 0.00 | 0.03 | 0.00 | 71 | 1008.4 |
| 20260905163102 | 88 | 316 | 2.0 | 6.0 | 0.00 | 0.03 | 0.00 | 71 | 1008.3 |
| 20260905163004 | 88 | 313 | 2.0 | 6.0 | 0.00 | 0.03 | 0.00 | 71 | 1008.4 |
| 20260905162903 | 88 | 305 | 2.0 | 6.0 | 0.00 | 0.03 | 0.00 | 71 | 1008.4 |
| 20260905162803 | 88 | 307 | 1.0 | 6.0 | 0.00 | 0.03 | 0.00 | 71 | 1008.4 |
| 20260905162702 | 88 | 329 | 2.0 | 6.0 | 0.00 | 0.03 | 0.00 | 71 | 1008.4 |
| 20260905162603 | 88 | 329 | 3.0 | 6.0 | 0.00 | 0.03 | 0.00 | 72 | 1008.5 |
| 20260905162504 | 88 | 329 | 4.0 | 6.0 | 0.00 | 0.03 | 0.00 | 72 | 1008.4 |
| 20260905162405 | 88 | 305 | 4.0 | 6.0 | 0.00 | 0.03 | 0.00 | 72 | 1008.4 |
| 20260905162305 | 88 | 310 | 4.0 | 6.0 | 0.00 | 0.03 | 0.00 | 72 | 1008.5 |
| 20260905162203 | 88 | 313 | 3.0 | 6.0 | 0.00 | 0.03 | 0.00 | 72 | 1008.4 |
| 20260905162104 | 88 | 0 | 2.0 | 4.0 | 0.00 | 0.03 | 0.00 | 72 | 1008.4 |
| 20260905162005 | 88 | 0 | 2.0 | 4.0 | 0.00 | 0.03 | 0.00 | 72 | 1008.5 |
| 20260905161902 | 88 | 358 | 3.0 | 4.0 | 0.00 | 0.03 | 0.00 | 72 | 1008.4 |
| 20260905161801 | 88 | 0 | 3.0 | 4.0 | 0.00 | 0.03 | 0.00 | 71 | 1008.4 |
| 20260905161704 | 88 | 0 | 3.0 | 4.0 | 0.00 | 0.03 | 0.00 | 71 | 1008.3 |
| 20260905161602 | 88 | 341 | 2.0 | 4.0 | 0.00 | 0.03 | 0.00 | 71 | 1008.4 |
| 20260905161503 | 88 | 353 | 2.0 | 3.0 | 0.00 | 0.03 | 0.00 | 71 | 1008.5 |
| 20260905161402 | 88 | 351 | 1.0 | 3.0 | 0.00 | 0.04 | 0.00 | 72 | 1008.4 |
| 20260905161304 | 88 | 348 | 0.0 | 2.0 | 0.00 | 0.04 | 0.00 | 72 | 1008.4 |
| 20260905161203 | 88 | 0 | 0.0 | 0.0 | 0.00 | 0.04 | 0.00 | 72 | 1008.4 |
| 20260905161102 | 87 | 358 | 0.0 | 0.0 | 0.00 | 0.04 | 0.00 | 72 | 1008.3 |
| 20260905161003 | 87 | 358 | 0.0 | 0.0 | 0.00 | 0.04 | 0.00 | 72 | 1008.3 |
| 20260905160902 | 87 | 358 | 0.0 | 0.0 | 0.00 | 0.04 | 0.00 | 72 | 1008.3 |
| 20260905160803 | 87 | 358 | 0.0 | 0.0 | 0.00 | 0.04 | 0.00 | 72 | 1008.3 |
| 20260905160656 | 87 | 358 | 0.0 | 0.0 | 0.00 | 0.04 | 0.00 | 72 | 1008.3 |
| 20260905160547 | 88 | 358 | 0.0 | 0.0 | 0.00 | 0.04 | 0.00 | 72 | 1008.3 |
| 20260905160446 | 88 | 358 | 0.0 | 0.0 | 0.00 | 0.04 | 0.00 | 72 | 1008.4 |
| 20260905160339 | 88 | 0 | 0.0 | 0.0 | 0.00 | 0.04 | 0.00 | 72 | 1008.4 |
| 20260905160234 | 88 | 0 | 0.0 | 0.0 | 0.00 | 0.04 | 0.00 | 72 | 1008.4 |
| 20260905160132 | 88 | 0 | 0.0 | 0.0 | 0.00 | 0.04 | 0.00 | 72 | 1008.4 |
| 20260905160032 | 87 | 0 | 0.0 | 0.0 | 0.00 | 0.04 | 0.00 | 72 | 1008.3 |
| 20260905155931 | 88 | 0 | 0.0 | 0.0 | 0.00 | 0.04 | 0.00 | 72 | 1008.4 |
| 20260905155833 | 88 | 0 | 0.0 | 0.0 | 0.00 | 0.04 | 0.00 | 72 | 1008.3 |
| 20260905155733 | 88 | 0 | 0.0 | 0.0 | 0.00 | 0.04 | 0.00 | 72 | 1008.4 |
| 20260905155627 | 88 | 0 | 0.0 | 0.0 | 0.00 | 0.04 | 0.00 | 72 | 1008.4 |
| 20260905155526 | 88 | 0 | 0.0 | 0.0 | 0.00 | 0.04 | 0.00 | 73 | 1008.4 |
| 20260905155415 | 88 | 0 | 0.0 | 0.0 | 0.00 | 0.04 | 0.00 | 73 | 1008.3 |
| 20260905155309 | 88 | 0 | 0.0 | 0.0 | 0.00 | 0.04 | 0.00 | 73 | 1008.3 |
| 20260905155207 | 88 | 1 | 0.0 | 0.0 | 0.00 | 0.04 | 0.00 | 73 | 1008.3 |
| 20260905155102 | 88 | 0 | 0.0 | 0.0 | 0.00 | 0.04 | 0.00 | 73 | 1008.3 |
| 20260905155004 | 87 | 0 | 0.0 | 0.0 | 0.00 | 0.04 | 0.00 | 73 | 1008.3 |
| 20260905154903 | 87 | 0 | 0.0 | 0.0 | 0.00 | 0.04 | 0.00 | 73 | 1008.2 |
| 20260905154802 | 87 | 1 | 0.0 | 0.0 | 0.00 | 0.04 | 0.00 | 74 | 1008.4 |
| 20260905154702 | 87 | 1 | 0.0 | 0.0 | 0.00 | 0.04 | 0.00 | 73 | 1008.3 |
| 20260905154602 | 87 | 1 | 0.0 | 0.0 | 0.00 | 0.04 | 0.00 | 73 | 1008.3 |
| 20260905154504 | 87 | 0 | 0.0 | 0.0 | 0.00 | 0.04 | 0.00 | 73 | 1008.3 |
| 20260905154402 | 87 | 0 | 0.0 | 0.0 | 0.00 | 0.04 | 0.00 | 74 | 1008.3 |
| 20260905154303 | 87 | 0 | 0.0 | 0.0 | 0.00 | 0.04 | 0.00 | 74 | 1008.3 |
| 20260905154202 | 87 | 1 | 0.0 | 0.0 | 0.00 | 0.04 | 0.00 | 75 | 1008.2 |
| 20260905154102 | 87 | 326 | 0.0 | 0.0 | 0.00 | 0.04 | 0.00 | 75 | 1008.3 |
| 20260905154002 | 87 | 326 | 0.0 | 0.0 | 0.00 | 0.04 | 0.00 | 75 | 1008.3 |
| 20260905153903 | 87 | 320 | 0.0 | 0.0 | 0.00 | 0.04 | 0.00 | 75 | 1008.3 |
| 20260905153803 | 87 | 345 | 0.0 | 0.0 | 0.00 | 0.04 | 0.00 | 75 | 1008.3 |
| 20260905153703 | 87 | 343 | 0.0 | 0.0 | 0.00 | 0.04 | 0.00 | 75 | 1008.3 |
| 20260905153603 | 87 | 303 | 0.0 | 0.0 | 0.00 | 0.04 | 0.00 | 75 | 1008.3 |
| 20260905153505 | 87 | 307 | 0.0 | 0.0 | 0.00 | 0.04 | 0.00 | 75 | 1008.3 |
| 20260905153402 | 87 | 299 | 0.0 | 0.0 | 0.00 | 0.04 | 0.00 | 76 | 1008.4 |
| 20260905153302 | 87 | 279 | 0.0 | 0.0 | 0.00 | 0.04 | 0.00 | 76 | 1008.3 |
| 20260905153202 | 87 | 279 | 0.0 | 0.0 | 0.00 | 0.04 | 0.00 | 76 | 1008.3 |
| 20260905153102 | 88 | 275 | 0.0 | 0.0 | 0.00 | 0.04 | 0.00 | 76 | 1008.4 |
| 20260905153003 | 88 | 330 | 0.0 | 0.0 | 0.00 | 0.04 | 0.00 | 76 | 1008.4 |
| 20260905152902 | 87 | 279 | 0.0 | 0.0 | 0.00 | 0.04 | 0.00 | 76 | 1008.4 |
| 20260905152802 | 87 | 276 | 0.0 | 0.0 | 0.00 | 0.04 | 0.00 | 76 | 1008.4 |
| 20260905152702 | 87 | 269 | 0.0 | 0.0 | 0.00 | 0.04 | 0.00 | 76 | 1008.3 |
| 20260905152602 | 87 | 269 | 0.0 | 0.0 | 0.00 | 0.04 | 0.00 | 76 | 1008.3 |
| 20260905152504 | 87 | 269 | 0.0 | 0.0 | 0.00 | 0.04 | 0.00 | 76 | 1008.4 |
| 20260905152403 | 87 | 269 | 0.0 | 0.0 | 0.00 | 0.04 | 0.00 | 76 | 1008.4 |
| 20260905152306 | 87 | 269 | 0.0 | 0.0 | 0.00 | 0.04 | 0.00 | 76 | 1008.4 |
| 20260905152202 | 87 | 86 | 0.0 | 0.0 | 0.00 | 0.04 | 0.00 | 79 | 1008.4 |
| 20260905152103 | 87 | 86 | 0.0 | 0.0 | 0.00 | 0.04 | 0.00 | 79 | 1008.3 |
| 20260905152003 | 87 | 86 | 0.0 | 0.0 | 0.00 | 0.04 | 0.00 | 79 | 1008.3 |
| 20260905151902 | 87 | 86 | 0.0 | 0.0 | 0.00 | 0.04 | 0.00 | 79 | 1008.4 |
| 20260905151802 | 87 | 86 | 0.0 | 0.0 | 0.00 | 0.04 | 0.00 | 79 | 1008.4 |
| 20260905151702 | 87 | 86 | 0.0 | 0.0 | 0.00 | 0.04 | 0.00 | 79 | 1008.4 |
| 20260905151602 | 87 | 86 | 0.0 | 0.0 | 0.00 | 0.04 | 0.00 | 79 | 1008.4 |
| 20260905151503 | 87 | 86 | 0.0 | 0.0 | 0.00 | 0.04 | 0.00 | 79 | 1008.4 |
| 20260905151403 | 87 | 86 | 0.0 | 0.0 | 0.00 | 0.04 | 0.00 | 79 | 1008.4 |
| 20260905151302 | 87 | 86 | 0.0 | 0.0 | 0.00 | 0.04 | 0.00 | 79 | 1008.4 |
| 20260905151202 | 87 | 92 | 0.0 | 0.0 | 0.00 | 0.04 | 0.00 | 79 | 1008.4 |
| 20260905151102 | 87 | 92 | 0.0 | 0.0 | 0.00 | 0.04 | 0.00 | 79 | 1008.4 |
| 20260905151003 | 87 | 92 | 0.0 | 0.0 | 0.00 | 0.04 | 0.00 | 79 | 1008.4 |
| 20260905150903 | 87 | 92 | 0.0 | 0.0 | 0.00 | 0.04 | 0.00 | 79 | 1008.4 |
| 20260905150803 | 87 | 93 | 0.0 | 0.0 | 0.00 | 0.04 | 0.00 | 79 | 1008.4 |
| 20260905150703 | 87 | 99 | 0.0 | 0.0 | 0.00 | 0.04 | 0.00 | 80 | 1008.3 |
| 20260905150610 | 87 | 166 | 0.0 | 0.0 | 0.00 | 0.04 | 0.00 | 80 | 1008.4 |
| 20260905150603 | 87 | 161 | 0.0 | 0.0 | 0.00 | 0.04 | 0.00 | 80 | 1008.4 |
| 20260905150402 | 87 | 166 | 0.0 | 0.0 | 0.00 | 0.04 | 0.00 | 80 | 1008.4 |
| 20260905150302 | 87 | 166 | 0.0 | 0.0 | 0.00 | 0.04 | 0.00 | 80 | 1008.5 |
| 20260905150203 | 86 | 168 | 0.0 | 0.0 | 0.00 | 0.04 | 0.00 | 80 | 1008.4 |
| 20260905150003 | 86 | 168 | 0.0 | 0.0 | 0.00 | 0.04 | 0.00 | 80 | 1008.4 |
| 20260905145902 | 86 | 168 | 0.0 | 0.0 | 0.00 | 0.04 | 0.00 | 80 | 1008.4 |
| 20260905145802 | 86 | 168 | 0.0 | 0.0 | 0.00 | 0.04 | 0.00 | 80 | 1008.4 |
| 20260905145703 | 86 | 168 | 0.0 | 0.0 | 0.00 | 0.04 | 0.00 | 80 | 1008.4 |
| 20260905145602 | 86 | 171 | 0.0 | 0.0 | 0.00 | 0.04 | 0.00 | 80 | 1008.4 |
| 20260905145502 | 86 | 182 | 0.0 | 0.0 | 0.00 | 0.04 | 0.00 | 81 | 1008.4 |
| 20260905145403 | 86 | 183 | 0.0 | 0.0 | 0.00 | 0.04 | 0.00 | 81 | 1008.5 |
| 20260905145306 | 85 | 195 | 0.0 | 0.0 | 0.00 | 0.04 | 0.00 | 83 | 1008.5 |
| 20260905145202 | 85 | 200 | 0.0 | 0.0 | 0.00 | 0.04 | 0.00 | 83 | 1008.4 |
| 20260905145102 | 85 | 207 | 0.0 | 0.0 | 0.00 | 0.04 | 0.00 | 83 | 1008.4 |
| 20260905145003 | 85 | 209 | 0.0 | 0.0 | 0.00 | 0.04 | 0.00 | 83 | 1008.4 |
| 20260905144901 | 85 | 245 | 0.0 | 0.0 | 0.00 | 0.04 | 0.00 | 83 | 1008.4 |
| 20260905144802 | 85 | 245 | 0.0 | 0.0 | 0.00 | 0.04 | 0.00 | 83 | 1008.5 |
| 20260905144702 | 85 | 245 | 0.0 | 0.0 | 0.00 | 0.04 | 0.00 | 83 | 1008.4 |
| 20260905144603 | 85 | 245 | 0.0 | 0.0 | 0.00 | 0.04 | 0.00 | 83 | 1008.4 |
| 20260905144504 | 0 | 0.0 | 0.0 | 0.00 | 0.04 | 0.00 | 1008.3 | ||
| 20260905144403 | 84 | 182 | 0.0 | 0.0 | 0.00 | 0.04 | 0.00 | 85 | 1008.4 |
| 20260905144304 | 84 | 182 | 0.0 | 0.0 | 0.00 | 0.04 | 0.00 | 85 | 1008.4 |
| 20260905144203 | 84 | 182 | 0.0 | 0.0 | 0.00 | 0.04 | 0.00 | 85 | 1008.5 |
| 20260905144104 | 84 | 182 | 0.0 | 0.0 | 0.00 | 0.04 | 0.00 | 85 | 1008.4 |
| 20260905144004 | 84 | 182 | 0.0 | 0.0 | 0.00 | 0.04 | 0.00 | 85 | 1008.4 |
| 20260905143903 | 84 | 182 | 0.0 | 0.0 | 0.00 | 0.04 | 0.00 | 85 | 1008.4 |
| 20260905143803 | 84 | 182 | 0.0 | 0.0 | 0.00 | 0.04 | 0.00 | 85 | 1008.4 |
| 20260905143704 | 84 | 182 | 0.0 | 0.0 | 0.00 | 0.04 | 0.00 | 85 | 1008.4 |
| 20260905143604 | 84 | 182 | 0.0 | 0.0 | 0.00 | 0.04 | 0.00 | 85 | 1008.4 |
| 20260905143503 | 84 | 182 | 0.0 | 0.0 | 0.00 | 0.04 | 0.00 | 85 | 1008.4 |
| 20260905143403 | 84 | 182 | 0.0 | 0.0 | 0.00 | 0.04 | 0.00 | 85 | 1008.4 |
| 20260905143302 | 84 | 182 | 0.0 | 0.0 | 0.00 | 0.04 | 0.00 | 85 | 1008.3 |
| 20260905143204 | 84 | 180 | 0.0 | 0.0 | 0.00 | 0.04 | 0.00 | 85 | 1008.4 |
| 20260905143104 | 84 | 180 | 0.0 | 0.0 | 0.00 | 0.04 | 0.00 | 85 | 1008.3 |
| 20260905143004 | 84 | 171 | 0.0 | 0.0 | 0.00 | 0.04 | 0.00 | 85 | 1008.3 |
| 20260905142903 | 84 | 169 | 0.0 | 0.0 | 0.00 | 0.04 | 0.00 | 85 | 1008.4 |
| 20260905142803 | 84 | 169 | 0.0 | 0.0 | 0.00 | 0.04 | 0.00 | 86 | 1008.4 |
| 20260905142703 | 84 | 169 | 0.0 | 0.0 | 0.00 | 0.04 | 0.00 | 86 | 1008.4 |
| 20260905142603 | 84 | 169 | 0.0 | 0.0 | 0.00 | 0.04 | 0.00 | 86 | 1008.3 |
| 20260905142504 | 84 | 171 | 0.0 | 0.0 | 0.00 | 0.04 | 0.00 | 86 | 1008.4 |
| 20260905142403 | 84 | 171 | 0.0 | 0.0 | 0.00 | 0.04 | 0.00 | 86 | 1008.4 |
| 20260905142305 | 84 | 171 | 0.0 | 0.0 | 0.00 | 0.04 | 0.00 | 86 | 1008.4 |
| 20260905142202 | 84 | 171 | 0.0 | 0.0 | 0.00 | 0.04 | 0.00 | 85 | 1008.3 |
| 20260905142102 | 84 | 171 | 0.0 | 0.0 | 0.00 | 0.04 | 0.00 | 86 | 1008.4 |
| 20260905142004 | 84 | 169 | 0.0 | 0.0 | 0.00 | 0.04 | 0.00 | 86 | 1008.4 |
| 20260905141902 | 84 | 171 | 0.0 | 0.0 | 0.00 | 0.04 | 0.00 | 86 | 1008.4 |
| 20260905141803 | 84 | 169 | 0.0 | 0.0 | 0.00 | 0.04 | 0.00 | 86 | 1008.3 |
| 20260905141704 | 84 | 154 | 0.0 | 0.0 | 0.00 | 0.04 | 0.00 | 87 | 1008.3 |
| 20260905141602 | 84 | 135 | 0.0 | 0.0 | 0.00 | 0.04 | 0.00 | 87 | 1008.4 |
| 20260905141504 | 84 | 135 | 0.0 | 0.0 | 0.00 | 0.04 | 0.00 | 87 | 1008.4 |
| 20260905141403 | 84 | 135 | 0.0 | 0.0 | 0.00 | 0.04 | 0.00 | 87 | 1008.4 |
| 20260905141304 | 84 | 135 | 0.0 | 0.0 | 0.00 | 0.04 | 0.00 | 87 | 1008.4 |
| 20260905141203 | 83 | 135 | 0.0 | 0.0 | 0.00 | 0.04 | 0.00 | 87 | 1008.3 |
| 20260905141102 | 83 | 135 | 0.0 | 0.0 | 0.00 | 0.04 | 0.00 | 87 | 1008.3 |
| 20260905141004 | 83 | 135 | 0.0 | 0.0 | 0.00 | 0.04 | 0.00 | 87 | 1008.3 |
| 20260905140904 | 83 | 135 | 0.0 | 0.0 | 0.00 | 0.04 | 0.00 | 87 | 1008.3 |
| 20260905140804 | 83 | 135 | 0.0 | 0.0 | 0.00 | 0.04 | 0.00 | 87 | 1008.4 |
| 20260905140702 | 83 | 135 | 0.0 | 0.0 | 0.00 | 0.04 | 0.00 | 87 | 1008.3 |
| 20260905140601 | 83 | 135 | 0.0 | 0.0 | 0.00 | 0.04 | 0.00 | 87 | 1008.3 |
| 20260905140504 | 83 | 135 | 0.0 | 0.0 | 0.00 | 0.04 | 0.00 | 88 | 1008.3 |
| 20260905140403 | 83 | 135 | 0.0 | 0.0 | 0.00 | 0.04 | 0.00 | 88 | 1008.4 |
| 20260905140305 | 83 | 135 | 0.0 | 0.0 | 0.00 | 0.04 | 0.00 | 88 | 1008.4 |
| 20260905140202 | 82 | 135 | 0.0 | 0.0 | 0.00 | 0.04 | 0.00 | 90 | 1008.4 |
| 20260905140103 | 82 | 135 | 0.0 | 0.0 | 0.00 | 0.04 | 0.00 | 90 | 1008.3 |
| 20260905140003 | 82 | 135 | 0.0 | 0.0 | 0.00 | 0.04 | 0.00 | 90 | 1008.4 |
| 20260905135903 | 82 | 135 | 0.0 | 0.0 | 0.00 | 0.04 | 0.00 | 90 | 1008.3 |
| 20260905135803 | 82 | 135 | 0.0 | 0.0 | 0.00 | 0.04 | 0.00 | 90 | 1008.4 |
| 20260905135704 | 82 | 135 | 0.0 | 0.0 | 0.00 | 0.04 | 0.00 | 90 | 1008.3 |
| 20260905135603 | 82 | 135 | 0.0 | 0.0 | 0.00 | 0.04 | 0.00 | 90 | 1008.3 |
| 20260905135501 | 82 | 135 | 0.0 | 0.0 | 0.00 | 0.04 | 0.00 | 90 | 1008.3 |
| 20260905135403 | 82 | 135 | 0.0 | 0.0 | 0.00 | 0.04 | 0.00 | 90 | 1008.2 |
| 20260905135306 | 82 | 135 | 0.0 | 0.0 | 0.00 | 0.04 | 0.00 | 90 | 1008.2 |
| 20260905135205 | 82 | 135 | 0.0 | 0.0 | 0.00 | 0.04 | 0.00 | 90 | 1008.0 |
| 20260905135102 | 82 | 135 | 0.0 | 0.0 | 0.00 | 0.04 | 0.00 | 91 | 1008.1 |
| 20260905135004 | 82 | 135 | 0.0 | 0.0 | 0.00 | 0.04 | 0.00 | 91 | 1008.1 |
| 20260905134904 | 82 | 135 | 0.0 | 0.0 | 0.00 | 0.04 | 0.00 | 91 | 1008.1 |
| 20260905134801 | 82 | 135 | 0.0 | 0.0 | 0.00 | 0.04 | 0.00 | 91 | 1008.1 |
| 20260905134659 | 82 | 135 | 0.0 | 0.0 | 0.00 | 0.04 | 0.00 | 91 | 1008.0 |
| 20260905134553 | 81 | 135 | 0.0 | 0.0 | 0.00 | 0.04 | 0.00 | 92 | 1008.1 |
| 20260905134452 | 81 | 135 | 0.0 | 0.0 | 0.00 | 0.04 | 0.00 | 92 | 1008.1 |
| 20260905134353 | 81 | 135 | 0.0 | 0.0 | 0.00 | 0.04 | 0.00 | 92 | 1008.1 |
| 20260905134252 | 81 | 135 | 0.0 | 0.0 | 0.00 | 0.04 | 0.00 | 93 | 1008.1 |
| 20260905134153 | 81 | 135 | 0.0 | 0.0 | 0.00 | 0.04 | 0.00 | 93 | 1008.1 |
| 20260905134053 | 81 | 135 | 0.0 | 0.0 | 0.00 | 0.04 | 0.00 | 93 | 1008.0 |
| 20260905133953 | 81 | 135 | 0.0 | 0.0 | 0.00 | 0.04 | 0.00 | 93 | 1008.0 |
| 20260905133853 | 81 | 135 | 0.0 | 0.0 | 0.00 | 0.04 | 0.00 | 93 | 1008.0 |
| 20260905133752 | 80 | 135 | 0.0 | 0.0 | 0.00 | 0.04 | 0.00 | 93 | 1008.1 |
| 20260905133653 | 81 | 135 | 0.0 | 0.0 | 0.00 | 0.04 | 0.00 | 93 | 1008.0 |
| 20260905133552 | 80 | 135 | 0.0 | 0.0 | 0.00 | 0.04 | 0.00 | 93 | 1008.0 |
| 20260905133453 | 80 | 135 | 0.0 | 0.0 | 0.00 | 0.04 | 0.00 | 93 | 1008.1 |
| 20260905133353 | 80 | 135 | 0.0 | 0.0 | 0.00 | 0.04 | 0.00 | 93 | 1008.1 |
| 20260905133251 | 80 | 135 | 0.0 | 0.0 | 0.00 | 0.04 | 0.00 | 93 | 1008.1 |
| 20260905133153 | 80 | 135 | 0.0 | 0.0 | 0.00 | 0.04 | 0.00 | 93 | 1008.1 |
| 20260905133051 | 80 | 135 | 0.0 | 0.0 | 0.00 | 0.04 | 0.00 | 93 | 1008.1 |
| 20260905132954 | 80 | 135 | 0.0 | 0.0 | 0.00 | 0.04 | 0.00 | 93 | 1008.1 |
| 20260905132852 | 80 | 135 | 0.0 | 0.0 | 0.00 | 0.04 | 0.00 | 93 | 1008.2 |
| 20260905132751 | 80 | 135 | 0.0 | 0.0 | 0.00 | 0.04 | 0.00 | 93 | 1008.2 |
| 20260905132653 | 80 | 135 | 0.0 | 0.0 | 0.00 | 0.04 | 0.00 | 93 | 1008.1 |
| 20260905132553 | 80 | 135 | 0.0 | 0.0 | 0.00 | 0.04 | 0.00 | 94 | 1008.2 |
| 20260905132452 | 80 | 135 | 0.0 | 0.0 | 0.00 | 0.04 | 0.00 | 94 | 1008.2 |
| 20260905132353 | 80 | 135 | 0.0 | 0.0 | 0.00 | 0.04 | 0.00 | 94 | 1008.2 |
| 20260905132253 | 80 | 135 | 0.0 | 0.0 | 0.00 | 0.04 | 0.00 | 94 | 1008.2 |
| 20260905132152 | 80 | 135 | 0.0 | 0.0 | 0.00 | 0.04 | 0.00 | 94 | 1008.2 |
| 20260905132053 | 80 | 135 | 0.0 | 0.0 | 0.00 | 0.04 | 0.00 | 94 | 1008.2 |
| 20260905131953 | 79 | 135 | 0.0 | 0.0 | 0.00 | 0.04 | 0.00 | 94 | 1008.0 |
| 20260905131852 | 79 | 135 | 0.0 | 0.0 | 0.00 | 0.04 | 0.00 | 94 | 1008.1 |
| 20260905131751 | 79 | 135 | 0.0 | 0.0 | 0.00 | 0.04 | 0.00 | 94 | 1008.2 |
| 20260905131653 | 79 | 135 | 0.0 | 0.0 | 0.00 | 0.04 | 0.00 | 94 | 1008.1 |
| 20260905131551 | 79 | 135 | 0.0 | 0.0 | 0.00 | 0.04 | 0.00 | 94 | 1008.1 |
| 20260905131454 | 79 | 135 | 0.0 | 0.0 | 0.00 | 0.04 | 0.00 | 94 | 1008.1 |
| 20260905131352 | 79 | 135 | 0.0 | 0.0 | 0.00 | 0.04 | 0.00 | 94 | 1008.1 |
| 20260905131251 | 79 | 135 | 0.0 | 0.0 | 0.00 | 0.04 | 0.00 | 94 | 1008.1 |
| 20260905131152 | 79 | 135 | 0.0 | 0.0 | 0.00 | 0.04 | 0.00 | 94 | 1008.2 |
| 20260905131051 | 79 | 149 | 0.0 | 0.0 | 0.00 | 0.04 | 0.00 | 94 | 1008.1 |
| 20260905130952 | 79 | 149 | 0.0 | 0.0 | 0.00 | 0.04 | 0.00 | 94 | 1008.1 |
| 20260905130852 | 79 | 151 | 0.0 | 0.0 | 0.00 | 0.04 | 0.00 | 94 | 1008.1 |
| 20260905130750 | 79 | 151 | 0.0 | 0.0 | 0.00 | 0.04 | 0.00 | 94 | 1008.2 |
| 20260905130653 | 79 | 151 | 0.0 | 0.0 | 0.00 | 0.04 | 0.00 | 94 | 1008.1 |
| 20260905130552 | 79 | 151 | 0.0 | 0.0 | 0.00 | 0.04 | 0.00 | 94 | 1008.1 |
| 20260905130451 | 79 | 151 | 0.0 | 0.0 | 0.00 | 0.04 | 0.00 | 94 | 1008.1 |
| 20260905130351 | 79 | 151 | 0.0 | 0.0 | 0.00 | 0.04 | 0.00 | 94 | 1008.1 |
| 20260905130252 | 79 | 151 | 0.0 | 0.0 | 0.00 | 0.04 | 0.00 | 94 | 1008.2 |
| 20260905130152 | 79 | 151 | 0.0 | 0.0 | 0.00 | 0.04 | 0.00 | 94 | 1008.1 |
| 20260905130052 | 79 | 151 | 0.0 | 0.0 | 0.00 | 0.04 | 0.00 | 94 | 1008.0 |
| 20260905125950 | 78 | 152 | 0.0 | 0.0 | 0.00 | 0.04 | 0.00 | 94 | 1008.0 |
| 20260905125851 | 78 | 152 | 0.0 | 0.0 | 0.00 | 0.04 | 0.00 | 94 | 1008.1 |
| 20260905125750 | 78 | 152 | 0.0 | 0.0 | 0.00 | 0.04 | 0.00 | 94 | 1008.0 |
| 20260905125652 | 78 | 154 | 0.0 | 0.0 | 0.00 | 0.04 | 0.00 | 94 | 1008.0 |
| 20260905125552 | 78 | 154 | 0.0 | 0.0 | 0.00 | 0.04 | 0.00 | 94 | 1008.0 |
| 20260905125450 | 78 | 154 | 0.0 | 0.0 | 0.00 | 0.04 | 0.00 | 94 | 1008.0 |
| 20260905125352 | 78 | 154 | 0.0 | 0.0 | 0.00 | 0.04 | 0.00 | 94 | 1007.9 |
| 20260905125251 | 78 | 154 | 0.0 | 0.0 | 0.00 | 0.04 | 0.00 | 94 | 1007.9 |
| 20260905125151 | 78 | 154 | 0.0 | 0.0 | 0.00 | 0.04 | 0.00 | 94 | 1007.9 |
| 20260905125052 | 78 | 154 | 0.0 | 0.0 | 0.00 | 0.04 | 0.00 | 94 | 1007.9 |
| 20260905124950 | 78 | 154 | 0.0 | 0.0 | 0.00 | 0.04 | 0.00 | 94 | 1007.9 |
| 20260905124851 | 78 | 155 | 0.0 | 0.0 | 0.00 | 0.04 | 0.00 | 94 | 1007.8 |
| 20260905124751 | 78 | 155 | 0.0 | 0.0 | 0.00 | 0.04 | 0.00 | 94 | 1007.8 |
| 20260905124653 | 78 | 155 | 0.0 | 0.0 | 0.00 | 0.04 | 0.00 | 94 | 1007.8 |
| 20260905124552 | 78 | 155 | 0.0 | 0.0 | 0.00 | 0.04 | 0.00 | 94 | 1007.8 |
| 20260905124451 | 78 | 155 | 0.0 | 0.0 | 0.00 | 0.04 | 0.00 | 94 | 1007.7 |
| 20260905124351 | 78 | 155 | 0.0 | 0.0 | 0.00 | 0.04 | 0.00 | 94 | 1007.7 |
| 20260905124250 | 78 | 155 | 0.0 | 0.0 | 0.00 | 0.04 | 0.00 | 94 | 1007.8 |
| 20260905124152 | 78 | 155 | 0.0 | 0.0 | 0.00 | 0.04 | 0.00 | 94 | 1007.7 |
| 20260905124050 | 78 | 155 | 0.0 | 0.0 | 0.00 | 0.04 | 0.00 | 94 | 1007.7 |
| 20260905123950 | 78 | 155 | 0.0 | 0.0 | 0.00 | 0.04 | 0.00 | 94 | 1007.7 |
| 20260905123852 | 78 | 155 | 0.0 | 0.0 | 0.00 | 0.04 | 0.00 | 94 | 1007.7 |
| 20260905123753 | 78 | 155 | 0.0 | 0.0 | 0.00 | 0.04 | 0.00 | 94 | 1007.6 |
| 20260905123652 | 77 | 155 | 0.0 | 0.0 | 0.00 | 0.04 | 0.00 | 94 | 1007.6 |
| 20260905123550 | 77 | 155 | 0.0 | 0.0 | 0.00 | 0.04 | 0.00 | 94 | 1007.6 |
| 20260905123450 | 77 | 155 | 0.0 | 0.0 | 0.00 | 0.04 | 0.00 | 94 | 1007.6 |
| 20260905123351 | 77 | 155 | 0.0 | 0.0 | 0.00 | 0.04 | 0.00 | 94 | 1007.6 |
| 20260905123251 | 77 | 155 | 0.0 | 0.0 | 0.00 | 0.04 | 0.00 | 94 | 1007.6 |
| 20260905123152 | 77 | 155 | 0.0 | 0.0 | 0.00 | 0.04 | 0.00 | 94 | 1007.6 |
| 20260905123051 | 77 | 155 | 0.0 | 0.0 | 0.00 | 0.04 | 0.00 | 94 | 1007.6 |
| 20260905122951 | 77 | 155 | 0.0 | 0.0 | 0.00 | 0.04 | 0.00 | 94 | 1007.6 |
| 20260905122852 | 77 | 155 | 0.0 | 0.0 | 0.00 | 0.04 | 0.00 | 94 | 1007.6 |
| 20260905122751 | 77 | 155 | 0.0 | 0.0 | 0.00 | 0.04 | 0.00 | 94 | 1007.7 |
| 20260905122651 | 77 | 155 | 0.0 | 0.0 | 0.00 | 0.04 | 0.00 | 94 | 1007.6 |
| 20260905122552 | 77 | 154 | 0.0 | 0.0 | 0.00 | 0.04 | 0.00 | 94 | 1007.6 |
| 20260905122452 | 77 | 155 | 0.0 | 0.0 | 0.00 | 0.04 | 0.00 | 94 | 1007.6 |
| 20260905122351 | 77 | 155 | 0.0 | 0.0 | 0.00 | 0.04 | 0.00 | 94 | 1007.6 |
| 20260905122251 | 77 | 155 | 0.0 | 0.0 | 0.00 | 0.04 | 0.00 | 94 | 1007.7 |
| 20260905122150 | 77 | 155 | 0.0 | 0.0 | 0.00 | 0.04 | 0.00 | 94 | 1007.7 |
| 20260905122051 | 77 | 154 | 0.0 | 0.0 | 0.00 | 0.04 | 0.00 | 94 | 1007.6 |
| 20260905121950 | 77 | 155 | 0.0 | 0.0 | 0.00 | 0.04 | 0.00 | 94 | 1007.6 |
| 20260905121849 | 77 | 155 | 0.0 | 0.0 | 0.00 | 0.04 | 0.00 | 94 | 1007.6 |
| 20260905121752 | 77 | 154 | 0.0 | 0.0 | 0.00 | 0.04 | 0.00 | 94 | 1007.5 |
| 20260905121651 | 77 | 155 | 0.0 | 0.0 | 0.00 | 0.04 | 0.00 | 94 | 1007.5 |
| 20260905121551 | 77 | 155 | 0.0 | 0.0 | 0.00 | 0.04 | 0.00 | 94 | 1007.5 |
| 20260905121450 | 77 | 154 | 0.0 | 0.0 | 0.00 | 0.04 | 0.00 | 94 | 1007.6 |
| 20260905121351 | 77 | 155 | 0.0 | 0.0 | 0.00 | 0.04 | 0.00 | 94 | 1007.5 |
| 20260905121250 | 77 | 155 | 0.0 | 0.0 | 0.00 | 0.04 | 0.00 | 94 | 1007.5 |
| 20260905121151 | 77 | 155 | 0.0 | 0.0 | 0.00 | 0.04 | 0.00 | 94 | 1007.5 |
| 20260905121051 | 77 | 155 | 0.0 | 0.0 | 0.00 | 0.04 | 0.00 | 94 | 1007.5 |
| 20260905120952 | 77 | 155 | 0.0 | 0.0 | 0.00 | 0.04 | 0.00 | 94 | 1007.5 |
| 20260905120850 | 77 | 155 | 0.0 | 0.0 | 0.00 | 0.04 | 0.00 | 94 | 1007.5 |
| 20260905120751 | 77 | 155 | 0.0 | 0.0 | 0.00 | 0.04 | 0.00 | 94 | 1007.5 |
| 20260905120649 | 77 | 155 | 0.0 | 0.0 | 0.00 | 0.04 | 0.00 | 94 | 1007.5 |
| 20260905120550 | 77 | 155 | 0.0 | 0.0 | 0.00 | 0.04 | 0.00 | 94 | 1007.5 |
| 20260905120449 | 77 | 155 | 0.0 | 0.0 | 0.00 | 0.04 | 0.00 | 94 | 1007.5 |
| 20260905120351 | 77 | 155 | 0.0 | 0.0 | 0.00 | 0.04 | 0.00 | 94 | 1007.5 |
| 20260905120252 | 77 | 155 | 0.0 | 0.0 | 0.00 | 0.04 | 0.00 | 94 | 1007.4 |
| 20260905120151 | 77 | 155 | 0.0 | 0.0 | 0.00 | 0.04 | 0.00 | 94 | 1007.3 |
| 20260905120050 | 77 | 155 | 0.0 | 0.0 | 0.00 | 0.04 | 0.00 | 94 | 1007.3 |
| 20260905115952 | 77 | 155 | 0.0 | 0.0 | 0.00 | 0.04 | 0.00 | 94 | 1007.3 |
| 20260905115848 | 77 | 155 | 0.0 | 0.0 | 0.00 | 0.04 | 0.00 | 94 | 1007.2 |
| 20260905115733 | 77 | 155 | 0.0 | 0.0 | 0.00 | 0.04 | 0.00 | 94 | 1007.3 |
| 20260905115632 | 77 | 155 | 0.0 | 0.0 | 0.00 | 0.04 | 0.00 | 94 | 1007.3 |
| 20260905115531 | 77 | 155 | 0.0 | 0.0 | 0.00 | 0.04 | 0.00 | 94 | 1007.3 |
| 20260905115432 | 77 | 155 | 0.0 | 0.0 | 0.00 | 0.04 | 0.00 | 94 | 1007.2 |
| 20260905115333 | 77 | 155 | 0.0 | 0.0 | 0.00 | 0.04 | 0.00 | 94 | 1007.2 |
| 20260905115231 | 77 | 155 | 0.0 | 0.0 | 0.00 | 0.04 | 0.00 | 94 | 1007.2 |
| 20260905115132 | 77 | 155 | 0.0 | 0.0 | 0.00 | 0.04 | 0.00 | 94 | 1007.2 |
| 20260905115032 | 77 | 155 | 0.0 | 0.0 | 0.00 | 0.04 | 0.00 | 94 | 1007.2 |
| 20260905114932 | 77 | 155 | 0.0 | 0.0 | 0.00 | 0.04 | 0.00 | 94 | 1007.2 |
| 20260905114823 | 77 | 155 | 0.0 | 0.0 | 0.00 | 0.04 | 0.00 | 94 | 1007.3 |
| 20260905114705 | 77 | 155 | 0.0 | 0.0 | 0.00 | 0.04 | 0.00 | 94 | 1007.3 |
| 20260905114603 | 77 | 155 | 0.0 | 0.0 | 0.00 | 0.04 | 0.00 | 94 | 1007.2 |
| 20260905114505 | 77 | 155 | 0.0 | 0.0 | 0.00 | 0.04 | 0.00 | 94 | 1007.2 |
| 20260905114404 | 77 | 155 | 0.0 | 0.0 | 0.00 | 0.04 | 0.00 | 94 | 1007.2 |
| 20260905114303 | 77 | 155 | 0.0 | 0.0 | 0.00 | 0.04 | 0.00 | 94 | 1007.1 |
| 20260905114204 | 77 | 155 | 0.0 | 0.0 | 0.00 | 0.04 | 0.00 | 94 | 1007.2 |
| 20260905114102 | 77 | 155 | 0.0 | 0.0 | 0.00 | 0.04 | 0.00 | 94 | 1007.1 |
| 20260905114004 | 77 | 155 | 0.0 | 0.0 | 0.00 | 0.04 | 0.00 | 94 | 1007.1 |
| 20260905113903 | 77 | 155 | 0.0 | 0.0 | 0.00 | 0.04 | 0.00 | 94 | 1007.1 |
| 20260905113804 | 77 | 155 | 0.0 | 0.0 | 0.00 | 0.04 | 0.00 | 94 | 1007.1 |
| 20260905113704 | 77 | 155 | 0.0 | 0.0 | 0.00 | 0.04 | 0.00 | 94 | 1007.1 |
| 20260905113602 | 77 | 155 | 0.0 | 0.0 | 0.00 | 0.04 | 0.00 | 94 | 1007.2 |
| 20260905113504 | 77 | 155 | 0.0 | 0.0 | 0.00 | 0.04 | 0.00 | 94 | 1007.1 |
| 20260905113404 | 77 | 155 | 0.0 | 0.0 | 0.00 | 0.04 | 0.00 | 94 | 1007.1 |
| 20260905113303 | 77 | 155 | 0.0 | 0.0 | 0.00 | 0.04 | 0.00 | 94 | 1007.1 |
| 20260905113203 | 77 | 155 | 0.0 | 1.0 | 0.00 | 0.04 | 0.00 | 94 | 1007.0 |
| 20260905113104 | 77 | 155 | 0.0 | 1.0 | 0.00 | 0.04 | 0.00 | 94 | 1007.1 |
| 20260905113005 | 77 | 155 | 0.0 | 1.0 | 0.00 | 0.04 | 0.00 | 94 | 1007.0 |
| 20260905112903 | 77 | 155 | 0.0 | 1.0 | 0.00 | 0.04 | 0.00 | 94 | 1007.1 |
| 20260905112804 | 77 | 155 | 0.0 | 1.0 | 0.00 | 0.04 | 0.00 | 94 | 1007.0 |
| 20260905112703 | 77 | 155 | 0.0 | 1.0 | 0.00 | 0.04 | 0.00 | 94 | 1007.0 |
| 20260905112604 | 77 | 155 | 0.0 | 1.0 | 0.00 | 0.04 | 0.00 | 94 | 1007.1 |
| 20260905112502 | 77 | 155 | 0.0 | 1.0 | 0.00 | 0.04 | 0.00 | 94 | 1007.0 |
| 20260905112404 | 77 | 155 | 0.0 | 1.0 | 0.00 | 0.04 | 0.00 | 94 | 1007.0 |
| 20260905112305 | 77 | 155 | 0.0 | 1.0 | 0.00 | 0.04 | 0.00 | 94 | 1007.0 |
| 20260905112204 | 77 | 155 | 0.0 | 0.0 | 0.00 | 0.04 | 0.00 | 94 | 1007.1 |
| 20260905112104 | 77 | 155 | 0.0 | 0.0 | 0.00 | 0.04 | 0.00 | 94 | 1007.0 |
| 20260905112003 | 77 | 155 | 0.0 | 0.0 | 0.00 | 0.04 | 0.00 | 94 | 1007.0 |
| 20260905111904 | 77 | 155 | 0.0 | 0.0 | 0.00 | 0.04 | 0.00 | 94 | 1007.0 |
| 20260905111803 | 77 | 155 | 0.0 | 0.0 | 0.00 | 0.04 | 0.00 | 94 | 1007.0 |
| 20260905111702 | 77 | 155 | 0.0 | 0.0 | 0.00 | 0.04 | 0.00 | 94 | 1006.9 |
| 20260905111603 | 77 | 155 | 0.0 | 0.0 | 0.00 | 0.04 | 0.00 | 94 | 1006.9 |
| 20260905111502 | 77 | 155 | 0.0 | 0.0 | 0.00 | 0.04 | 0.00 | 94 | 1006.9 |
| 20260905111403 | 77 | 155 | 0.0 | 0.0 | 0.00 | 0.04 | 0.00 | 94 | 1006.9 |
| 20260905111304 | 78 | 155 | 0.0 | 0.0 | 0.00 | 0.04 | 0.00 | 94 | 1006.9 |
| 20260905111203 | 78 | 155 | 0.0 | 0.0 | 0.00 | 0.04 | 0.00 | 94 | 1006.8 |
| 20260905111104 | 78 | 155 | 0.0 | 0.0 | 0.00 | 0.04 | 0.00 | 94 | 1006.8 |
| 20260905111003 | 78 | 155 | 0.0 | 0.0 | 0.00 | 0.04 | 0.00 | 94 | 1006.8 |
| 20260905110902 | 78 | 155 | 0.0 | 0.0 | 0.00 | 0.04 | 0.00 | 94 | 1006.8 |
| 20260905110802 | 78 | 155 | 0.0 | 0.0 | 0.00 | 0.04 | 0.00 | 94 | 1006.8 |
| 20260905110703 | 78 | 155 | 0.0 | 0.0 | 0.00 | 0.04 | 0.00 | 94 | 1006.8 |
| 20260905110602 | 78 | 155 | 0.0 | 0.0 | 0.00 | 0.04 | 0.00 | 94 | 1006.8 |
| 20260905110504 | 77 | 155 | 0.0 | 0.0 | 0.00 | 0.04 | 0.00 | 94 | 1006.8 |
| 20260905110403 | 77 | 155 | 0.0 | 0.0 | 0.00 | 0.04 | 0.00 | 94 | 1006.8 |
| 20260905110303 | 77 | 155 | 0.0 | 0.0 | 0.00 | 0.04 | 0.00 | 94 | 1006.9 |
| 20260905110204 | 77 | 155 | 0.0 | 0.0 | 0.00 | 0.04 | 0.00 | 94 | 1006.8 |
| 20260905110003 | 77 | 155 | 0.0 | 0.0 | 0.00 | 0.04 | 0.00 | 94 | 1006.8 |
| 20260905105903 | 77 | 155 | 0.0 | 0.0 | 0.00 | 0.04 | 0.00 | 94 | 1006.8 |
| 20260905105802 | 77 | 155 | 0.0 | 0.0 | 0.00 | 0.04 | 0.00 | 94 | 1006.7 |
| 20260905105703 | 77 | 155 | 0.0 | 0.0 | 0.00 | 0.04 | 0.00 | 94 | 1006.8 |
| 20260905105603 | 77 | 155 | 0.0 | 0.0 | 0.00 | 0.04 | 0.00 | 94 | 1006.8 |
| 20260905105504 | 77 | 155 | 0.0 | 0.0 | 0.00 | 0.04 | 0.00 | 94 | 1006.8 |
| 20260905105403 | 77 | 155 | 0.0 | 0.0 | 0.00 | 0.04 | 0.00 | 94 | 1006.8 |
| 20260905105305 | 77 | 155 | 0.0 | 0.0 | 0.00 | 0.04 | 0.00 | 94 | 1006.7 |
| 20260905105204 | 77 | 155 | 0.0 | 0.0 | 0.00 | 0.04 | 0.00 | 94 | 1006.7 |
| 20260905105102 | 77 | 155 | 0.0 | 0.0 | 0.00 | 0.04 | 0.00 | 94 | 1006.7 |
| 20260905105005 | 77 | 155 | 0.0 | 0.0 | 0.00 | 0.04 | 0.00 | 94 | 1006.7 |
| 20260905104903 | 77 | 155 | 0.0 | 0.0 | 0.00 | 0.04 | 0.00 | 94 | 1006.7 |
| 20260905104803 | 77 | 155 | 0.0 | 0.0 | 0.00 | 0.04 | 0.00 | 94 | 1006.7 |
| 20260905104701 | 77 | 155 | 0.0 | 0.0 | 0.00 | 0.04 | 0.00 | 94 | 1006.8 |
| 20260905104602 | 77 | 155 | 0.0 | 0.0 | 0.00 | 0.04 | 0.00 | 94 | 1006.7 |
| 20260905104504 | 77 | 155 | 0.0 | 1.0 | 0.00 | 0.04 | 0.00 | 93 | 1006.6 |
| 20260905104403 | 77 | 155 | 0.0 | 1.0 | 0.00 | 0.04 | 0.00 | 93 | 1006.6 |
| 20260905104303 | 77 | 155 | 0.0 | 1.0 | 0.00 | 0.04 | 0.00 | 93 | 1006.6 |
| 20260905104202 | 77 | 155 | 0.0 | 1.0 | 0.00 | 0.04 | 0.00 | 93 | 1006.6 |
| 20260905104102 | 77 | 155 | 0.0 | 1.0 | 0.00 | 0.04 | 0.00 | 93 | 1006.7 |
| 20260905104004 | 78 | 155 | 0.0 | 1.0 | 0.00 | 0.04 | 0.00 | 94 | 1006.6 |
| 20260905103902 | 78 | 155 | 0.0 | 1.0 | 0.00 | 0.04 | 0.00 | 94 | 1006.6 |
| 20260905103804 | 77 | 155 | 0.0 | 1.0 | 0.00 | 0.04 | 0.00 | 94 | 1006.7 |
| 20260905103703 | 77 | 155 | 0.0 | 1.0 | 0.00 | 0.04 | 0.00 | 93 | 1006.7 |
| 20260905103603 | 77 | 155 | 0.0 | 1.0 | 0.00 | 0.04 | 0.00 | 93 | 1006.7 |
| 20260905103504 | 77 | 155 | 0.0 | 1.0 | 0.00 | 0.04 | 0.00 | 93 | 1006.8 |
| 20260905103405 | 77 | 155 | 0.0 | 0.0 | 0.00 | 0.04 | 0.00 | 93 | 1006.7 |
| 20260905103303 | 77 | 155 | 0.0 | 0.0 | 0.00 | 0.04 | 0.00 | 93 | 1006.7 |
| 20260905103204 | 77 | 155 | 0.0 | 0.0 | 0.00 | 0.04 | 0.00 | 93 | 1006.7 |
| 20260905103103 | 77 | 155 | 0.0 | 0.0 | 0.00 | 0.04 | 0.00 | 93 | 1006.7 |
| 20260905103003 | 77 | 155 | 0.0 | 0.0 | 0.00 | 0.04 | 0.00 | 93 | 1006.7 |
| 20260905102903 | 77 | 155 | 0.0 | 0.0 | 0.00 | 0.04 | 0.00 | 93 | 1006.7 |
| 20260905102803 | 77 | 155 | 0.0 | 0.0 | 0.00 | 0.04 | 0.00 | 93 | 1006.7 |
| 20260905102705 | 77 | 155 | 0.0 | 0.0 | 0.00 | 0.04 | 0.00 | 93 | 1006.7 |
| 20260905102602 | 77 | 155 | 0.0 | 0.0 | 0.00 | 0.04 | 0.00 | 93 | 1006.7 |
| 20260905102502 | 77 | 155 | 0.0 | 0.0 | 0.00 | 0.04 | 0.00 | 93 | 1006.7 |
| 20260905102403 | 77 | 155 | 0.0 | 0.0 | 0.00 | 0.04 | 0.00 | 93 | 1006.6 |
| 20260905102306 | 78 | 155 | 0.0 | 0.0 | 0.00 | 0.04 | 0.00 | 93 | 1006.7 |
| 20260905102202 | 77 | 155 | 0.0 | 0.0 | 0.00 | 0.04 | 0.00 | 93 | 1006.6 |
| 20260905102102 | 77 | 155 | 0.0 | 0.0 | 0.00 | 0.04 | 0.00 | 93 | 1006.7 |
| 20260905102002 | 78 | 155 | 0.0 | 0.0 | 0.00 | 0.04 | 0.00 | 93 | 1006.7 |
| 20260905101903 | 78 | 155 | 0.0 | 0.0 | 0.00 | 0.04 | 0.00 | 93 | 1006.7 |
| 20260905101804 | 77 | 155 | 0.0 | 0.0 | 0.00 | 0.04 | 0.00 | 93 | 1006.7 |
| 20260905101702 | 77 | 155 | 0.0 | 0.0 | 0.00 | 0.04 | 0.00 | 93 | 1006.6 |
| 20260905101602 | 77 | 155 | 0.0 | 0.0 | 0.00 | 0.04 | 0.00 | 93 | 1006.7 |
| 20260905101504 | 77 | 155 | 0.0 | 0.0 | 0.00 | 0.04 | 0.00 | 93 | 1006.7 |
| 20260905101402 | 77 | 155 | 0.0 | 0.0 | 0.00 | 0.04 | 0.00 | 93 | 1006.7 |
| 20260905101304 | 77 | 155 | 0.0 | 0.0 | 0.00 | 0.04 | 0.00 | 93 | 1006.7 |
| 20260905101202 | 77 | 155 | 0.0 | 0.0 | 0.00 | 0.04 | 0.00 | 93 | 1006.7 |
| 20260905101103 | 77 | 155 | 0.0 | 0.0 | 0.00 | 0.04 | 0.00 | 93 | 1006.7 |
| 20260905101002 | 78 | 155 | 0.0 | 0.0 | 0.00 | 0.04 | 0.00 | 93 | 1006.7 |
| 20260905100905 | 78 | 155 | 0.0 | 0.0 | 0.00 | 0.04 | 0.00 | 93 | 1006.7 |
| 20260905100805 | 78 | 155 | 0.0 | 0.0 | 0.00 | 0.04 | 0.00 | 93 | 1006.7 |
| 20260905100703 | 78 | 155 | 0.0 | 0.0 | 0.00 | 0.04 | 0.00 | 93 | 1006.7 |
| 20260905100603 | 77 | 155 | 0.0 | 1.0 | 0.00 | 0.04 | 0.00 | 93 | 1006.7 |
| 20260905100503 | 78 | 155 | 0.0 | 1.0 | 0.00 | 0.04 | 0.00 | 93 | 1006.8 |
| 20260905100403 | 78 | 155 | 0.0 | 2.0 | 0.00 | 0.04 | 0.00 | 93 | 1006.7 |
| 20260905100303 | 78 | 155 | 0.0 | 2.0 | 0.00 | 0.04 | 0.00 | 93 | 1006.7 |
| 20260905100204 | 78 | 155 | 0.0 | 2.0 | 0.00 | 0.04 | 0.00 | 93 | 1006.6 |
| 20260905100005 | 78 | 155 | 0.0 | 2.0 | 0.00 | 0.04 | 0.00 | 93 | 1006.7 |
| 20260905095903 | 78 | 155 | 0.0 | 2.0 | 0.00 | 0.04 | 0.00 | 93 | 1006.7 |
| 20260905095804 | 78 | 155 | 0.0 | 2.0 | 0.00 | 0.04 | 0.00 | 93 | 1006.7 |
| 20260905095704 | 78 | 155 | 0.0 | 2.0 | 0.00 | 0.04 | 0.00 | 93 | 1006.7 |
| 20260905095604 | 78 | 155 | 1.0 | 2.0 | 0.00 | 0.04 | 0.00 | 93 | 1006.6 |
| 20260905095502 | 78 | 155 | 2.0 | 2.0 | 0.00 | 0.04 | 0.00 | 93 | 1006.7 |
| 20260905095404 | 78 | 155 | 0.0 | 1.0 | 0.00 | 0.04 | 0.00 | 93 | 1006.6 |
| 20260905095305 | 78 | 155 | 0.0 | 1.0 | 0.00 | 0.04 | 0.00 | 93 | 1006.7 |
| 20260905095203 | 78 | 155 | 0.0 | 0.0 | 0.00 | 0.04 | 0.00 | 93 | 1006.6 |
| 20260905095103 | 78 | 155 | 0.0 | 0.0 | 0.00 | 0.04 | 0.00 | 93 | 1006.7 |
| 20260905095003 | 78 | 155 | 0.0 | 0.0 | 0.00 | 0.04 | 0.00 | 93 | 1006.7 |
| 20260905094903 | 78 | 155 | 0.0 | 0.0 | 0.00 | 0.04 | 0.00 | 93 | 1006.7 |
| 20260905094804 | 78 | 155 | 0.0 | 0.0 | 0.00 | 0.04 | 0.00 | 93 | 1006.7 |
| 20260905094703 | 78 | 155 | 0.0 | 0.0 | 0.00 | 0.04 | 0.00 | 93 | 1006.6 |
| 20260905094604 | 78 | 155 | 0.0 | 0.0 | 0.00 | 0.04 | 0.00 | 93 | 1006.7 |
| 20260905094505 | 78 | 155 | 0.0 | 0.0 | 0.00 | 0.04 | 0.00 | 93 | 1006.7 |
| 20260905094402 | 78 | 155 | 0.0 | 0.0 | 0.00 | 0.04 | 0.00 | 93 | 1006.6 |
| 20260905094304 | 78 | 155 | 0.0 | 0.0 | 0.00 | 0.04 | 0.00 | 93 | 1006.6 |
| 20260905094203 | 78 | 155 | 0.0 | 0.0 | 0.00 | 0.04 | 0.00 | 93 | 1006.5 |
| 20260905094104 | 78 | 155 | 0.0 | 0.0 | 0.00 | 0.04 | 0.00 | 93 | 1006.6 |
| 20260905094002 | 78 | 155 | 0.0 | 0.0 | 0.00 | 0.04 | 0.00 | 93 | 1006.6 |
| 20260905093903 | 78 | 155 | 0.0 | 0.0 | 0.00 | 0.04 | 0.00 | 93 | 1006.5 |
| 20260905093802 | 78 | 155 | 0.0 | 0.0 | 0.00 | 0.04 | 0.00 | 93 | 1006.5 |
| 20260905093703 | 78 | 155 | 0.0 | 0.0 | 0.00 | 0.04 | 0.00 | 93 | 1006.5 |
| 20260905093603 | 78 | 155 | 0.0 | 0.0 | 0.00 | 0.04 | 0.00 | 93 | 1006.6 |
| 20260905093502 | 78 | 155 | 0.0 | 0.0 | 0.00 | 0.04 | 0.00 | 93 | 1006.6 |
| 20260905093404 | 78 | 155 | 0.0 | 0.0 | 0.00 | 0.04 | 0.00 | 93 | 1006.6 |
| 20260905093304 | 78 | 155 | 0.0 | 0.0 | 0.00 | 0.04 | 0.00 | 93 | 1006.6 |
| 20260905093203 | 78 | 155 | 0.0 | 0.0 | 0.00 | 0.04 | 0.00 | 93 | 1006.6 |
| 20260905093103 | 78 | 155 | 0.0 | 0.0 | 0.00 | 0.04 | 0.00 | 93 | 1006.6 |
| 20260905093005 | 78 | 155 | 0.0 | 0.0 | 0.00 | 0.04 | 0.00 | 93 | 1006.6 |
| 20260905092904 | 78 | 155 | 0.0 | 0.0 | 0.00 | 0.04 | 0.00 | 93 | 1006.6 |
| 20260905092802 | 78 | 155 | 0.0 | 0.0 | 0.00 | 0.04 | 0.00 | 93 | 1006.6 |
| 20260905092703 | 78 | 155 | 0.0 | 0.0 | 0.00 | 0.04 | 0.00 | 93 | 1006.6 |
| 20260905092602 | 78 | 155 | 0.0 | 0.0 | 0.00 | 0.04 | 0.00 | 93 | 1006.6 |
| 20260905092503 | 78 | 155 | 0.0 | 0.0 | 0.00 | 0.04 | 0.00 | 93 | 1006.6 |
| 20260905092404 | 78 | 155 | 0.0 | 0.0 | 0.00 | 0.04 | 0.00 | 93 | 1006.7 |
| 20260905092306 | 78 | 155 | 0.0 | 0.0 | 0.00 | 0.04 | 0.00 | 93 | 1006.6 |
| 20260905092203 | 78 | 155 | 0.0 | 0.0 | 0.00 | 0.04 | 0.00 | 93 | 1006.6 |
| 20260905092102 | 78 | 155 | 0.0 | 0.0 | 0.00 | 0.04 | 0.00 | 93 | 1006.7 |
| 20260905092006 | 78 | 155 | 0.0 | 0.0 | 0.00 | 0.04 | 0.00 | 93 | 1006.6 |
| 20260905091903 | 78 | 155 | 0.0 | 0.0 | 0.00 | 0.04 | 0.00 | 93 | 1006.6 |
| 20260905091804 | 78 | 155 | 0.0 | 0.0 | 0.00 | 0.04 | 0.00 | 93 | 1006.6 |
| 20260905091702 | 78 | 155 | 0.0 | 0.0 | 0.00 | 0.04 | 0.00 | 93 | 1006.6 |
| 20260905091604 | 78 | 155 | 0.0 | 0.0 | 0.00 | 0.04 | 0.00 | 93 | 1006.6 |
| 20260905091504 | 78 | 155 | 0.0 | 0.0 | 0.00 | 0.04 | 0.00 | 93 | 1006.7 |
| 20260905091402 | 78 | 155 | 0.0 | 0.0 | 0.00 | 0.04 | 0.00 | 93 | 1006.7 |
| 20260905091303 | 78 | 155 | 0.0 | 0.0 | 0.00 | 0.04 | 0.00 | 93 | 1006.6 |
| 20260905091203 | 78 | 155 | 0.0 | 0.0 | 0.00 | 0.04 | 0.00 | 93 | 1006.7 |
| 20260905091102 | 78 | 155 | 0.0 | 0.0 | 0.00 | 0.04 | 0.00 | 93 | 1006.7 |
| 20260905091003 | 78 | 155 | 0.0 | 0.0 | 0.00 | 0.04 | 0.00 | 93 | 1006.7 |
| 20260905090902 | 78 | 155 | 0.0 | 0.0 | 0.00 | 0.04 | 0.00 | 93 | 1006.7 |
| 20260905090804 | 78 | 155 | 0.0 | 0.0 | 0.00 | 0.04 | 0.00 | 93 | 1006.7 |
| 20260905090702 | 78 | 155 | 0.0 | 0.0 | 0.00 | 0.04 | 0.00 | 93 | 1006.7 |
| 20260905090602 | 78 | 155 | 0.0 | 0.0 | 0.00 | 0.04 | 0.00 | 93 | 1006.8 |
| 20260905090502 | 78 | 155 | 0.0 | 0.0 | 0.00 | 0.04 | 0.00 | 93 | 1006.7 |
| 20260905090402 | 78 | 155 | 0.0 | 0.0 | 0.00 | 0.04 | 0.00 | 93 | 1006.7 |
| 20260905090301 | 78 | 155 | 0.0 | 0.0 | 0.00 | 0.04 | 0.00 | 93 | 1006.8 |
| 20260905090157 | 78 | 155 | 0.0 | 0.0 | 0.00 | 0.04 | 0.00 | 93 | 1006.7 |
| 20260905090047 | 78 | 155 | 0.0 | 0.0 | 0.00 | 0.04 | 0.00 | 93 | 1006.8 |
| 20260905085943 | 78 | 155 | 0.0 | 0.0 | 0.00 | 0.04 | 0.00 | 93 | 1006.8 |
| 20260905085846 | 78 | 155 | 0.0 | 0.0 | 0.00 | 0.04 | 0.00 | 92 | 1006.7 |
| 20260905085743 | 78 | 155 | 0.0 | 0.0 | 0.00 | 0.04 | 0.00 | 93 | 1006.7 |
| 20260905085644 | 78 | 155 | 0.0 | 0.0 | 0.00 | 0.04 | 0.00 | 92 | 1006.6 |
| 20260905085543 | 78 | 155 | 0.0 | 0.0 | 0.00 | 0.04 | 0.00 | 92 | 1006.6 |
| 20260905085444 | 78 | 155 | 0.0 | 0.0 | 0.00 | 0.04 | 0.00 | 92 | 1006.6 |
| 20260905085345 | 78 | 155 | 0.0 | 0.0 | 0.00 | 0.04 | 0.00 | 92 | 1006.6 |
| 20260905085245 | 78 | 155 | 0.0 | 0.0 | 0.00 | 0.04 | 0.00 | 92 | 1006.6 |
| 20260905085144 | 78 | 155 | 0.0 | 1.0 | 0.00 | 0.04 | 0.00 | 92 | 1006.5 |
| 20260905085046 | 78 | 155 | 0.0 | 1.0 | 0.00 | 0.04 | 0.00 | 92 | 1006.5 |
| 20260905084943 | 78 | 155 | 0.0 | 1.0 | 0.00 | 0.04 | 0.00 | 92 | 1006.5 |
| 20260905084845 | 78 | 155 | 0.0 | 1.0 | 0.00 | 0.04 | 0.00 | 92 | 1006.5 |
| 20260905084745 | 78 | 155 | 0.0 | 1.0 | 0.00 | 0.04 | 0.00 | 92 | 1006.6 |
| 20260905084646 | 78 | 155 | 0.0 | 1.0 | 0.00 | 0.04 | 0.00 | 92 | 1006.6 |
| 20260905084545 | 78 | 155 | 0.0 | 1.0 | 0.00 | 0.04 | 0.00 | 92 | 1006.5 |
| 20260905084444 | 78 | 155 | 0.0 | 1.0 | 0.00 | 0.04 | 0.00 | 92 | 1006.4 |
| 20260905084345 | 78 | 155 | 0.0 | 1.0 | 0.00 | 0.04 | 0.00 | 92 | 1006.5 |
| 20260905084243 | 78 | 155 | 0.0 | 1.0 | 0.00 | 0.04 | 0.00 | 92 | 1006.4 |
| 20260905084144 | 78 | 155 | 0.0 | 0.0 | 0.00 | 0.04 | 0.00 | 92 | 1006.4 |
| 20260905084045 | 78 | 155 | 0.0 | 0.0 | 0.00 | 0.04 | 0.00 | 92 | 1006.4 |
| 20260905083944 | 78 | 155 | 0.0 | 0.0 | 0.00 | 0.04 | 0.00 | 92 | 1006.4 |
| 20260905083844 | 78 | 155 | 0.0 | 0.0 | 0.00 | 0.04 | 0.00 | 92 | 1006.4 |
| 20260905083745 | 78 | 155 | 0.0 | 0.0 | 0.00 | 0.04 | 0.00 | 92 | 1006.5 |
| 20260905083644 | 78 | 155 | 0.0 | 0.0 | 0.00 | 0.04 | 0.00 | 92 | 1006.5 |
| 20260905083543 | 78 | 155 | 0.0 | 0.0 | 0.00 | 0.04 | 0.00 | 92 | 1006.4 |
| 20260905083446 | 78 | 155 | 0.0 | 0.0 | 0.00 | 0.04 | 0.00 | 92 | 1006.5 |
| 20260905083344 | 79 | 155 | 0.0 | 0.0 | 0.00 | 0.04 | 0.00 | 92 | 1006.4 |
| 20260905083244 | 79 | 155 | 0.0 | 0.0 | 0.00 | 0.04 | 0.00 | 92 | 1006.4 |
| 20260905083144 | 79 | 155 | 0.0 | 0.0 | 0.00 | 0.04 | 0.00 | 92 | 1006.4 |
| 20260905083045 | 79 | 155 | 0.0 | 0.0 | 0.00 | 0.04 | 0.00 | 92 | 1006.5 |
| 20260905082944 | 79 | 155 | 0.0 | 0.0 | 0.00 | 0.04 | 0.00 | 92 | 1006.5 |
| 20260905082844 | 79 | 155 | 0.0 | 0.0 | 0.00 | 0.04 | 0.00 | 92 | 1006.5 |
| 20260905082744 | 79 | 155 | 0.0 | 0.0 | 0.00 | 0.04 | 0.00 | 92 | 1006.5 |
| 20260905082645 | 79 | 155 | 0.0 | 0.0 | 0.00 | 0.04 | 0.00 | 92 | 1006.5 |
| 20260905082544 | 79 | 155 | 0.0 | 0.0 | 0.00 | 0.04 | 0.00 | 92 | 1006.5 |
| 20260905082444 | 79 | 155 | 0.0 | 0.0 | 0.00 | 0.04 | 0.00 | 92 | 1006.5 |
| 20260905082344 | 79 | 155 | 0.0 | 0.0 | 0.00 | 0.04 | 0.00 | 92 | 1006.7 |
| 20260905082244 | 79 | 155 | 0.0 | 0.0 | 0.00 | 0.04 | 0.00 | 92 | 1006.7 |
| 20260905082142 | 79 | 155 | 0.0 | 0.0 | 0.00 | 0.04 | 0.00 | 92 | 1006.6 |
| 20260905082044 | 79 | 155 | 0.0 | 0.0 | 0.00 | 0.04 | 0.00 | 92 | 1006.6 |
| 20260905081943 | 79 | 155 | 0.0 | 0.0 | 0.00 | 0.04 | 0.00 | 92 | 1006.6 |
| 20260905081844 | 79 | 155 | 0.0 | 0.0 | 0.00 | 0.04 | 0.00 | 92 | 1006.6 |
| 20260905081743 | 79 | 155 | 0.0 | 0.0 | 0.00 | 0.04 | 0.00 | 92 | 1006.7 |
| 20260905081642 | 79 | 155 | 0.0 | 0.0 | 0.00 | 0.04 | 0.00 | 92 | 1006.6 |
| 20260905081542 | 79 | 155 | 0.0 | 0.0 | 0.00 | 0.04 | 0.00 | 92 | 1006.7 |
| 20260905081444 | 79 | 155 | 0.0 | 0.0 | 0.00 | 0.04 | 0.00 | 92 | 1006.8 |
| 20260905081342 | 79 | 155 | 0.0 | 0.0 | 0.00 | 0.04 | 0.00 | 92 | 1006.7 |
| 20260905081244 | 79 | 155 | 0.0 | 0.0 | 0.00 | 0.04 | 0.00 | 92 | 1006.7 |
| 20260905081144 | 79 | 155 | 0.0 | 0.0 | 0.00 | 0.04 | 0.00 | 92 | 1006.8 |
| 20260905081043 | 79 | 155 | 0.0 | 0.0 | 0.00 | 0.04 | 0.00 | 92 | 1006.7 |
| 20260905080942 | 79 | 155 | 0.0 | 0.0 | 0.00 | 0.04 | 0.00 | 92 | 1006.7 |
| 20260905080844 | 79 | 155 | 0.0 | 0.0 | 0.00 | 0.04 | 0.00 | 92 | 1006.7 |
| 20260905080742 | 79 | 155 | 0.0 | 0.0 | 0.00 | 0.04 | 0.00 | 92 | 1006.6 |
| 20260905080644 | 79 | 155 | 0.0 | 0.0 | 0.00 | 0.04 | 0.00 | 92 | 1006.5 |
| 20260905080542 | 79 | 155 | 0.0 | 0.0 | 0.00 | 0.04 | 0.00 | 92 | 1006.5 |
| 20260905080444 | 79 | 155 | 0.0 | 0.0 | 0.00 | 0.04 | 0.00 | 92 | 1006.6 |
| 20260905080344 | 79 | 155 | 0.0 | 0.0 | 0.00 | 0.04 | 0.00 | 92 | 1006.5 |
| 20260905080244 | 79 | 155 | 0.0 | 0.0 | 0.00 | 0.04 | 0.00 | 92 | 1006.7 |
| 20260905080143 | 79 | 155 | 0.0 | 0.0 | 0.00 | 0.04 | 0.00 | 91 | 1006.6 |
| 20260905080043 | 79 | 155 | 0.0 | 0.0 | 0.00 | 0.04 | 0.00 | 91 | 1006.7 |
| 20260905075943 | 79 | 155 | 0.0 | 0.0 | 0.00 | 0.04 | 0.00 | 91 | 1006.7 |
| 20260905075843 | 79 | 155 | 0.0 | 0.0 | 0.00 | 0.04 | 0.00 | 91 | 1006.7 |
| 20260905075742 | 79 | 155 | 0.0 | 0.0 | 0.00 | 0.04 | 0.00 | 91 | 1006.7 |
| 20260905075644 | 79 | 155 | 0.0 | 0.0 | 0.00 | 0.04 | 0.00 | 91 | 1006.6 |
| 20260905075542 | 79 | 155 | 0.0 | 0.0 | 0.00 | 0.04 | 0.00 | 91 | 1006.7 |
| 20260905075443 | 79 | 155 | 0.0 | 0.0 | 0.00 | 0.04 | 0.00 | 91 | 1006.7 |
| 20260905075342 | 79 | 155 | 0.0 | 0.0 | 0.00 | 0.04 | 0.00 | 91 | 1006.7 |
| 20260905075243 | 79 | 155 | 0.0 | 0.0 | 0.00 | 0.04 | 0.00 | 91 | 1006.7 |
| 20260905075142 | 79 | 155 | 0.0 | 0.0 | 0.00 | 0.04 | 0.00 | 91 | 1006.6 |
| 20260905075042 | 79 | 155 | 0.0 | 0.0 | 0.00 | 0.04 | 0.00 | 91 | 1006.6 |
| 20260905074944 | 79 | 155 | 0.0 | 0.0 | 0.00 | 0.04 | 0.00 | 91 | 1006.6 |
| 20260905074842 | 79 | 155 | 0.0 | 0.0 | 0.00 | 0.04 | 0.00 | 91 | 1006.7 |
| 20260905074743 | 79 | 155 | 0.0 | 0.0 | 0.00 | 0.04 | 0.00 | 91 | 1006.6 |
| 20260905074644 | 79 | 155 | 0.0 | 0.0 | 0.00 | 0.04 | 0.00 | 91 | 1006.6 |
| 20260905074543 | 79 | 155 | 0.0 | 0.0 | 0.00 | 0.04 | 0.00 | 91 | 1006.7 |
| 20260905074443 | 79 | 155 | 0.0 | 0.0 | 0.00 | 0.04 | 0.00 | 91 | 1006.8 |
| 20260905074343 | 79 | 155 | 0.0 | 0.0 | 0.00 | 0.04 | 0.00 | 91 | 1006.7 |
| 20260905074241 | 79 | 155 | 0.0 | 0.0 | 0.00 | 0.04 | 0.00 | 91 | 1006.7 |
| 20260905074145 | 79 | 155 | 0.0 | 0.0 | 0.00 | 0.04 | 0.00 | 91 | 1006.7 |
| 20260905074044 | 79 | 155 | 0.0 | 0.0 | 0.00 | 0.04 | 0.00 | 91 | 1006.7 |
| 20260905073944 | 79 | 155 | 0.0 | 0.0 | 0.00 | 0.04 | 0.00 | 91 | 1006.8 |
| 20260905073842 | 79 | 155 | 0.0 | 0.0 | 0.00 | 0.04 | 0.00 | 91 | 1006.8 |
| 20260905073742 | 79 | 155 | 0.0 | 0.0 | 0.00 | 0.04 | 0.00 | 91 | 1006.7 |
| 20260905073643 | 80 | 155 | 0.0 | 0.0 | 0.00 | 0.04 | 0.00 | 91 | 1006.8 |
| 20260905073543 | 80 | 155 | 0.0 | 0.0 | 0.00 | 0.04 | 0.00 | 91 | 1006.8 |
| 20260905073441 | 79 | 155 | 0.0 | 0.0 | 0.00 | 0.04 | 0.00 | 91 | 1006.8 |
| 20260905073343 | 79 | 155 | 0.0 | 0.0 | 0.00 | 0.04 | 0.00 | 91 | 1006.7 |
| 20260905073243 | 79 | 155 | 0.0 | 0.0 | 0.00 | 0.04 | 0.00 | 91 | 1006.8 |
| 20260905073143 | 79 | 155 | 0.0 | 0.0 | 0.00 | 0.04 | 0.00 | 91 | 1006.7 |
| 20260905073041 | 79 | 155 | 0.0 | 0.0 | 0.00 | 0.04 | 0.00 | 91 | 1006.8 |
| 20260905072943 | 79 | 155 | 0.0 | 0.0 | 0.00 | 0.04 | 0.00 | 91 | 1006.8 |
| 20260905072843 | 79 | 155 | 0.0 | 0.0 | 0.00 | 0.04 | 0.00 | 91 | 1006.7 |
| 20260905072742 | 79 | 155 | 0.0 | 0.0 | 0.00 | 0.04 | 0.00 | 91 | 1006.8 |
| 20260905072643 | 79 | 155 | 0.0 | 0.0 | 0.00 | 0.04 | 0.00 | 91 | 1006.8 |
| 20260905072542 | 79 | 155 | 0.0 | 0.0 | 0.00 | 0.04 | 0.00 | 91 | 1006.8 |
| 20260905072441 | 79 | 155 | 0.0 | 0.0 | 0.00 | 0.04 | 0.00 | 91 | 1006.8 |
| 20260905072343 | 79 | 155 | 0.0 | 0.0 | 0.00 | 0.04 | 0.00 | 91 | 1006.9 |
| 20260905072243 | 79 | 155 | 0.0 | 0.0 | 0.00 | 0.04 | 0.00 | 91 | 1006.9 |
| 20260905072142 | 79 | 155 | 0.0 | 0.0 | 0.00 | 0.04 | 0.00 | 91 | 1006.9 |
| 20260905072042 | 79 | 155 | 0.0 | 0.0 | 0.00 | 0.04 | 0.00 | 91 | 1007.0 |
| 20260905071942 | 79 | 155 | 0.0 | 0.0 | 0.00 | 0.04 | 0.00 | 91 | 1007.0 |
| 20260905071842 | 79 | 155 | 0.0 | 0.0 | 0.00 | 0.04 | 0.00 | 91 | 1007.0 |
| 20260905071743 | 79 | 155 | 0.0 | 0.0 | 0.00 | 0.04 | 0.00 | 91 | 1007.0 |
| 20260905071644 | 79 | 155 | 0.0 | 0.0 | 0.00 | 0.04 | 0.00 | 91 | 1007.0 |
| 20260905071541 | 79 | 155 | 0.0 | 0.0 | 0.00 | 0.04 | 0.00 | 91 | 1007.0 |
| 20260905071442 | 80 | 155 | 0.0 | 0.0 | 0.00 | 0.04 | 0.00 | 91 | 1007.0 |
| 20260905071343 | 80 | 155 | 0.0 | 0.0 | 0.00 | 0.04 | 0.00 | 91 | 1007.0 |
| 20260905071242 | 80 | 155 | 0.0 | 0.0 | 0.00 | 0.04 | 0.00 | 91 | 1007.0 |
| 20260905071141 | 80 | 155 | 0.0 | 0.0 | 0.00 | 0.04 | 0.00 | 91 | 1007.0 |
| 20260905071042 | 80 | 155 | 0.0 | 0.0 | 0.00 | 0.04 | 0.00 | 91 | 1007.1 |
| 20260905070943 | 80 | 155 | 0.0 | 0.0 | 0.00 | 0.04 | 0.00 | 91 | 1007.0 |
| 20260905070841 | 80 | 155 | 0.0 | 0.0 | 0.00 | 0.04 | 0.00 | 90 | 1007.0 |
| 20260905070743 | 80 | 155 | 0.0 | 0.0 | 0.00 | 0.04 | 0.00 | 90 | 1007.0 |
| 20260905070641 | 80 | 155 | 0.0 | 0.0 | 0.00 | 0.04 | 0.00 | 90 | 1007.0 |
| 20260905070543 | 80 | 155 | 0.0 | 0.0 | 0.00 | 0.04 | 0.00 | 90 | 1007.1 |
| 20260905070441 | 80 | 155 | 0.0 | 0.0 | 0.00 | 0.04 | 0.00 | 90 | 1007.0 |
| 20260905070341 | 80 | 155 | 0.0 | 0.0 | 0.00 | 0.04 | 0.00 | 90 | 1007.0 |
| 20260905070242 | 80 | 155 | 0.0 | 0.0 | 0.00 | 0.04 | 0.00 | 90 | 1007.0 |
| 20260905070140 | 80 | 155 | 0.0 | 0.0 | 0.00 | 0.04 | 0.00 | 90 | 1007.0 |
| 20260905070042 | 80 | 155 | 0.0 | 0.0 | 0.00 | 0.04 | 0.00 | 90 | 1007.0 |
| 20260905065941 | 80 | 155 | 0.0 | 0.0 | 0.00 | 0.04 | 0.00 | 90 | 1007.1 |
| 20260905065843 | 80 | 155 | 0.0 | 0.0 | 0.00 | 0.04 | 0.00 | 90 | 1007.1 |
| 20260905065742 | 80 | 155 | 0.0 | 0.0 | 0.00 | 0.04 | 0.00 | 90 | 1007.1 |
| 20260905065642 | 80 | 155 | 0.0 | 0.0 | 0.00 | 0.04 | 0.00 | 90 | 1007.1 |
| 20260905065542 | 80 | 155 | 0.0 | 0.0 | 0.00 | 0.04 | 0.00 | 90 | 1007.1 |
| 20260905065441 | 80 | 155 | 0.0 | 0.0 | 0.00 | 0.04 | 0.00 | 90 | 1007.1 |
| 20260905065342 | 80 | 155 | 0.0 | 0.0 | 0.00 | 0.04 | 0.00 | 90 | 1007.0 |
| 20260905065241 | 80 | 155 | 0.0 | 0.0 | 0.00 | 0.04 | 0.00 | 90 | 1007.0 |
| 20260905065141 | 80 | 155 | 0.0 | 0.0 | 0.00 | 0.04 | 0.00 | 90 | 1007.0 |
| 20260905065040 | 80 | 155 | 0.0 | 0.0 | 0.00 | 0.04 | 0.00 | 90 | 1007.0 |
| 20260905064941 | 80 | 155 | 0.0 | 0.0 | 0.00 | 0.04 | 0.00 | 90 | 1007.0 |
| 20260905064842 | 80 | 155 | 0.0 | 0.0 | 0.00 | 0.04 | 0.00 | 90 | 1007.0 |
| 20260905064740 | 80 | 155 | 0.0 | 0.0 | 0.00 | 0.04 | 0.00 | 90 | 1007.0 |
| 20260905064641 | 80 | 155 | 0.0 | 0.0 | 0.00 | 0.04 | 0.00 | 90 | 1007.0 |
| 20260905064542 | 80 | 155 | 0.0 | 0.0 | 0.00 | 0.04 | 0.00 | 90 | 1007.1 |
| 20260905064442 | 80 | 155 | 0.0 | 0.0 | 0.00 | 0.04 | 0.00 | 90 | 1007.0 |
| 20260905064341 | 80 | 155 | 0.0 | 0.0 | 0.00 | 0.04 | 0.00 | 90 | 1007.0 |
| 20260905064242 | 80 | 155 | 0.0 | 0.0 | 0.00 | 0.04 | 0.00 | 90 | 1007.0 |
| 20260905064142 | 80 | 155 | 0.0 | 0.0 | 0.00 | 0.04 | 0.00 | 89 | 1007.1 |
| 20260905064041 | 80 | 155 | 0.0 | 0.0 | 0.00 | 0.04 | 0.00 | 89 | 1007.1 |
| 20260905063942 | 80 | 155 | 0.0 | 0.0 | 0.00 | 0.04 | 0.00 | 89 | 1007.0 |
| 20260905063841 | 80 | 155 | 0.0 | 0.0 | 0.00 | 0.04 | 0.00 | 89 | 1007.1 |
| 20260905063742 | 80 | 155 | 0.0 | 0.0 | 0.00 | 0.04 | 0.00 | 89 | 1007.0 |
| 20260905063641 | 80 | 155 | 0.0 | 0.0 | 0.00 | 0.04 | 0.00 | 89 | 1007.0 |
| 20260905063540 | 80 | 155 | 0.0 | 0.0 | 0.00 | 0.04 | 0.00 | 89 | 1007.1 |
| 20260905063440 | 80 | 155 | 0.0 | 0.0 | 0.00 | 0.04 | 0.00 | 89 | 1007.1 |
| 20260905063341 | 80 | 155 | 0.0 | 0.0 | 0.00 | 0.04 | 0.00 | 89 | 1007.1 |
| 20260905063241 | 80 | 155 | 0.0 | 0.0 | 0.00 | 0.04 | 0.00 | 89 | 1007.1 |
| 20260905063141 | 80 | 155 | 0.0 | 0.0 | 0.00 | 0.04 | 0.00 | 89 | 1007.1 |
| 20260905063040 | 80 | 155 | 0.0 | 0.0 | 0.00 | 0.04 | 0.00 | 89 | 1007.1 |
| 20260905062940 | 81 | 155 | 0.0 | 0.0 | 0.00 | 0.04 | 0.00 | 89 | 1007.1 |
| 20260905062842 | 81 | 155 | 0.0 | 0.0 | 0.00 | 0.04 | 0.00 | 89 | 1007.3 |
| 20260905062741 | 81 | 155 | 0.0 | 0.0 | 0.00 | 0.04 | 0.00 | 88 | 1007.2 |
| 20260905062641 | 81 | 155 | 0.0 | 0.0 | 0.00 | 0.04 | 0.00 | 88 | 1007.3 |
| 20260905062541 | 81 | 155 | 0.0 | 0.0 | 0.00 | 0.04 | 0.00 | 88 | 1007.2 |
| 20260905062442 | 81 | 155 | 0.0 | 0.0 | 0.00 | 0.04 | 0.00 | 88 | 1007.2 |
| 20260905062341 | 81 | 155 | 0.0 | 0.0 | 0.00 | 0.04 | 0.00 | 88 | 1007.3 |
| 20260905062242 | 81 | 155 | 0.0 | 0.0 | 0.00 | 0.04 | 0.00 | 88 | 1007.3 |
| 20260905062142 | 81 | 155 | 0.0 | 0.0 | 0.00 | 0.04 | 0.00 | 88 | 1007.3 |
| 20260905062041 | 81 | 155 | 0.0 | 0.0 | 0.00 | 0.04 | 0.00 | 88 | 1007.3 |
| 20260905061942 | 81 | 155 | 0.0 | 0.0 | 0.00 | 0.04 | 0.00 | 88 | 1007.3 |
| 20260905061840 | 81 | 155 | 0.0 | 0.0 | 0.00 | 0.04 | 0.00 | 88 | 1007.3 |
| 20260905061741 | 81 | 155 | 0.0 | 0.0 | 0.00 | 0.04 | 0.00 | 88 | 1007.3 |
| 20260905061640 | 81 | 155 | 0.0 | 0.0 | 0.00 | 0.04 | 0.00 | 88 | 1007.3 |
| 20260905061539 | 81 | 155 | 0.0 | 0.0 | 0.00 | 0.04 | 0.00 | 88 | 1007.4 |
| 20260905061439 | 81 | 155 | 0.0 | 1.0 | 0.00 | 0.04 | 0.00 | 88 | 1007.4 |
| 20260905061341 | 81 | 155 | 0.0 | 1.0 | 0.00 | 0.04 | 0.00 | 88 | 1007.3 |
| 20260905061240 | 81 | 155 | 0.0 | 1.0 | 0.00 | 0.04 | 0.00 | 88 | 1007.3 |
| 20260905061141 | 81 | 155 | 0.0 | 1.0 | 0.00 | 0.04 | 0.00 | 88 | 1007.4 |
| 20260905061039 | 81 | 155 | 0.0 | 1.0 | 0.00 | 0.04 | 0.00 | 88 | 1007.4 |
| 20260905060940 | 81 | 155 | 0.0 | 1.0 | 0.00 | 0.04 | 0.00 | 88 | 1007.4 |
| 20260905060839 | 81 | 155 | 0.0 | 1.0 | 0.00 | 0.04 | 0.00 | 88 | 1007.4 |
| 20260905060740 | 81 | 155 | 0.0 | 1.0 | 0.00 | 0.04 | 0.00 | 88 | 1007.3 |
| 20260905060641 | 81 | 155 | 0.0 | 1.0 | 0.00 | 0.04 | 0.00 | 88 | 1007.4 |
| 20260905060539 | 81 | 155 | 0.0 | 1.0 | 0.00 | 0.04 | 0.00 | 88 | 1007.4 |
| 20260905060441 | 81 | 155 | 0.0 | 0.0 | 0.00 | 0.04 | 0.00 | 88 | 1007.4 |
| 20260905060341 | 81 | 154 | 0.0 | 0.0 | 0.00 | 0.04 | 0.00 | 88 | 1007.4 |
| 20260905060240 | 81 | 154 | 0.0 | 0.0 | 0.00 | 0.04 | 0.00 | 88 | 1007.4 |
| 20260905060141 | 81 | 154 | 0.0 | 0.0 | 0.00 | 0.04 | 0.00 | 88 | 1007.4 |
| 20260905060041 | 81 | 155 | 0.0 | 1.0 | 0.00 | 0.04 | 0.00 | 88 | 1007.4 |
| 20260905055941 | 81 | 154 | 0.0 | 1.0 | 0.00 | 0.04 | 0.00 | 88 | 1007.4 |
| 20260905055840 | 81 | 155 | 0.0 | 1.0 | 0.00 | 0.04 | 0.00 | 88 | 1007.4 |
| 20260905055742 | 81 | 155 | 0.0 | 1.0 | 0.00 | 0.04 | 0.00 | 88 | 1007.3 |
| 20260905055639 | 81 | 155 | 0.0 | 2.0 | 0.00 | 0.04 | 0.00 | 87 | 1007.4 |
| 20260905055539 | 81 | 155 | 0.0 | 2.0 | 0.00 | 0.04 | 0.00 | 87 | 1007.4 |
| 20260905055442 | 81 | 154 | 0.0 | 2.0 | 0.00 | 0.04 | 0.00 | 87 | 1007.4 |
| 20260905055331 | 81 | 154 | 0.0 | 2.0 | 0.00 | 0.04 | 0.00 | 87 | 1007.3 |
| 20260905055232 | 81 | 154 | 0.0 | 2.0 | 0.00 | 0.04 | 0.00 | 87 | 1007.3 |
| 20260905055132 | 81 | 155 | 0.0 | 2.0 | 0.00 | 0.04 | 0.00 | 87 | 1007.3 |
| 20260905055032 | 81 | 154 | 0.0 | 2.0 | 0.00 | 0.04 | 0.00 | 87 | 1007.3 |
| 20260905054932 | 81 | 154 | 0.0 | 2.0 | 0.00 | 0.04 | 0.00 | 87 | 1007.2 |
| 20260905054833 | 81 | 154 | 0.0 | 2.0 | 0.00 | 0.04 | 0.00 | 87 | 1007.3 |
| 20260905054731 | 81 | 154 | 0.0 | 2.0 | 0.00 | 0.04 | 0.00 | 87 | 1007.2 |
| 20260905054631 | 81 | 152 | 0.0 | 2.0 | 0.00 | 0.04 | 0.00 | 87 | 1007.2 |
| 20260905054532 | 81 | 152 | 0.0 | 2.0 | 0.00 | 0.04 | 0.00 | 87 | 1007.2 |
| 20260905054433 | 81 | 152 | 0.0 | 2.0 | 0.00 | 0.04 | 0.00 | 87 | 1007.2 |
| 20260905054333 | 81 | 157 | 0.0 | 2.0 | 0.00 | 0.04 | 0.00 | 87 | 1007.2 |
| 20260905054232 | 81 | 157 | 0.0 | 2.0 | 0.00 | 0.04 | 0.00 | 87 | 1007.2 |
| 20260905054132 | 81 | 152 | 0.0 | 2.0 | 0.00 | 0.04 | 0.00 | 87 | 1007.1 |
| 20260905054032 | 81 | 149 | 1.0 | 2.0 | 0.00 | 0.04 | 0.00 | 87 | 1007.2 |
| 20260905053931 | 81 | 149 | 1.0 | 2.0 | 0.00 | 0.04 | 0.00 | 87 | 1007.2 |
| 20260905053831 | 82 | 144 | 1.0 | 2.0 | 0.00 | 0.04 | 0.00 | 87 | 1007.2 |
| 20260905053732 | 81 | 148 | 0.0 | 2.0 | 0.00 | 0.04 | 0.00 | 87 | 1007.2 |
| 20260905053633 | 82 | 148 | 1.0 | 2.0 | 0.00 | 0.04 | 0.00 | 87 | 1007.2 |
| 20260905053532 | 82 | 148 | 1.0 | 2.0 | 0.00 | 0.04 | 0.00 | 87 | 1007.2 |
| 20260905053432 | 82 | 148 | 0.0 | 2.0 | 0.00 | 0.04 | 0.00 | 87 | 1007.2 |
| 20260905053333 | 82 | 148 | 0.0 | 1.0 | 0.00 | 0.04 | 0.00 | 87 | 1007.2 |
| 20260905053232 | 82 | 148 | 0.0 | 1.0 | 0.00 | 0.04 | 0.00 | 87 | 1007.3 |
| 20260905053132 | 82 | 148 | 0.0 | 1.0 | 0.00 | 0.04 | 0.00 | 87 | 1007.3 |
| 20260905053031 | 82 | 148 | 0.0 | 1.0 | 0.00 | 0.04 | 0.00 | 87 | 1007.4 |
| 20260905052933 | 82 | 148 | 0.0 | 2.0 | 0.00 | 0.04 | 0.00 | 87 | 1007.3 |
| 20260905052832 | 82 | 148 | 0.0 | 2.0 | 0.00 | 0.04 | 0.00 | 87 | 1007.3 |
| 20260905052733 | 82 | 148 | 0.0 | 2.0 | 0.00 | 0.04 | 0.00 | 87 | 1007.4 |
| 20260905052632 | 82 | 147 | 0.0 | 2.0 | 0.00 | 0.04 | 0.00 | 87 | 1007.3 |
| 20260905052533 | 82 | 147 | 0.0 | 2.0 | 0.00 | 0.04 | 0.00 | 86 | 1007.3 |
| 20260905052430 | 82 | 147 | 0.0 | 2.0 | 0.00 | 0.04 | 0.00 | 86 | 1007.4 |
| 20260905052332 | 82 | 147 | 0.0 | 3.0 | 0.00 | 0.04 | 0.00 | 86 | 1007.3 |
| 20260905052233 | 82 | 147 | 0.0 | 3.0 | 0.00 | 0.04 | 0.00 | 86 | 1007.4 |
| 20260905052132 | 82 | 147 | 0.0 | 3.0 | 0.00 | 0.04 | 0.00 | 86 | 1007.4 |
| 20260905052033 | 82 | 147 | 1.0 | 3.0 | 0.00 | 0.04 | 0.00 | 86 | 1007.3 |
| 20260905051931 | 82 | 147 | 0.0 | 3.0 | 0.00 | 0.04 | 0.00 | 86 | 1007.2 |
| 20260905051833 | 82 | 148 | 0.0 | 3.0 | 0.00 | 0.04 | 0.00 | 86 | 1007.2 |
| 20260905051732 | 82 | 148 | 0.0 | 3.0 | 0.00 | 0.04 | 0.00 | 86 | 1007.2 |
| 20260905051632 | 82 | 148 | 0.0 | 3.0 | 0.00 | 0.04 | 0.00 | 86 | 1007.2 |
| 20260905051531 | 82 | 148 | 1.0 | 3.0 | 0.00 | 0.04 | 0.00 | 86 | 1007.2 |
| 20260905051433 | 82 | 149 | 2.0 | 4.0 | 0.00 | 0.04 | 0.00 | 86 | 1007.2 |
| 20260905051333 | 82 | 148 | 1.0 | 4.0 | 0.00 | 0.04 | 0.00 | 86 | 1007.1 |
| 20260905051231 | 82 | 142 | 1.0 | 4.0 | 0.00 | 0.04 | 0.00 | 86 | 1007.1 |
| 20260905051133 | 82 | 138 | 0.0 | 4.0 | 0.00 | 0.04 | 0.00 | 86 | 1007.2 |
| 20260905051032 | 82 | 137 | 0.0 | 4.0 | 0.00 | 0.04 | 0.00 | 86 | 1007.3 |
| 20260905050933 | 82 | 137 | 0.0 | 4.0 | 0.00 | 0.04 | 0.00 | 86 | 1007.3 |
| 20260905050832 | 82 | 133 | 0.0 | 4.0 | 0.00 | 0.04 | 0.00 | 86 | 1007.3 |
| 20260905050731 | 82 | 133 | 0.0 | 4.0 | 0.00 | 0.04 | 0.00 | 86 | 1007.2 |
| 20260905050632 | 82 | 131 | 1.0 | 4.0 | 0.00 | 0.04 | 0.00 | 86 | 1007.3 |
| 20260905050532 | 82 | 133 | 2.0 | 4.0 | 0.00 | 0.04 | 0.00 | 86 | 1007.2 |
| 20260905050422 | 82 | 155 | 2.0 | 4.0 | 0.00 | 0.04 | 0.00 | 86 | 1007.2 |
| 20260905050318 | 82 | 154 | 2.0 | 4.0 | 0.00 | 0.04 | 0.00 | 86 | 1007.2 |
| 20260905050217 | 82 | 151 | 1.0 | 4.0 | 0.00 | 0.04 | 0.00 | 86 | 1007.1 |
| 20260905050112 | 82 | 149 | 0.0 | 4.0 | 0.00 | 0.04 | 0.00 | 86 | 1007.1 |
| 20260905050006 | 82 | 152 | 0.0 | 4.0 | 0.00 | 0.04 | 0.00 | 85 | 1007.1 |
| 20260905045903 | 82 | 152 | 1.0 | 4.0 | 0.00 | 0.04 | 0.04 | 85 | 1007.1 |
| 20260905045804 | 82 | 149 | 1.0 | 4.0 | 0.00 | 0.04 | 0.04 | 85 | 1007.1 |
| 20260905045703 | 82 | 158 | 1.0 | 4.0 | 0.00 | 0.04 | 0.04 | 85 | 1007.2 |
| 20260905045603 | 82 | 151 | 1.0 | 3.0 | 0.00 | 0.04 | 0.04 | 85 | 1007.1 |
| 20260905045504 | 82 | 155 | 1.0 | 3.0 | 0.00 | 0.04 | 0.04 | 85 | 1007.1 |
| 20260905045403 | 82 | 158 | 1.0 | 3.0 | 0.00 | 0.04 | 0.04 | 85 | 1007.1 |
| 20260905045306 | 82 | 157 | 2.0 | 3.0 | 0.00 | 0.04 | 0.04 | 85 | 1007.2 |
| 20260905045203 | 82 | 157 | 2.0 | 3.0 | 0.00 | 0.04 | 0.04 | 85 | 1007.1 |
| 20260905045103 | 82 | 161 | 1.0 | 3.0 | 0.00 | 0.04 | 0.04 | 85 | 1007.1 |
| 20260905045003 | 82 | 172 | 1.0 | 3.0 | 0.00 | 0.04 | 0.04 | 85 | 1007.1 |
| 20260905044904 | 82 | 145 | 1.0 | 3.0 | 0.00 | 0.04 | 0.04 | 85 | 1007.2 |
| 20260905044804 | 82 | 145 | 1.0 | 3.0 | 0.00 | 0.04 | 0.04 | 85 | 1007.2 |
| 20260905044703 | 82 | 138 | 2.0 | 3.0 | 0.00 | 0.04 | 0.04 | 85 | 1007.3 |
| 20260905044604 | 82 | 140 | 2.0 | 3.0 | 0.00 | 0.04 | 0.04 | 85 | 1007.2 |
| 20260905044504 | 82 | 138 | 2.0 | 3.0 | 0.00 | 0.04 | 0.04 | 85 | 1007.3 |
| 20260905044402 | 82 | 145 | 1.0 | 2.0 | 0.00 | 0.04 | 0.04 | 85 | 1007.3 |
| 20260905044303 | 82 | 151 | 1.0 | 2.0 | 0.00 | 0.04 | 0.04 | 85 | 1007.3 |
| 20260905044203 | 82 | 151 | 1.0 | 2.0 | 0.00 | 0.04 | 0.04 | 85 | 1007.3 |
| 20260905044104 | 82 | 159 | 0.0 | 2.0 | 0.00 | 0.04 | 0.04 | 85 | 1007.3 |
| 20260905044003 | 82 | 159 | 0.0 | 2.0 | 0.00 | 0.04 | 0.04 | 85 | 1007.4 |
| 20260905043903 | 82 | 159 | 0.0 | 2.0 | 0.00 | 0.04 | 0.04 | 85 | 1007.3 |
| 20260905043803 | 82 | 159 | 0.0 | 2.0 | 0.00 | 0.04 | 0.04 | 85 | 1007.3 |
| 20260905043702 | 83 | 159 | 1.0 | 2.0 | 0.00 | 0.04 | 0.04 | 84 | 1007.3 |
| 20260905043602 | 83 | 159 | 1.0 | 2.0 | 0.00 | 0.04 | 0.04 | 84 | 1007.4 |
| 20260905043505 | 83 | 161 | 1.0 | 2.0 | 0.00 | 0.04 | 0.04 | 84 | 1007.4 |
| 20260905043402 | 83 | 161 | 1.0 | 3.0 | 0.00 | 0.04 | 0.04 | 84 | 1007.4 |
| 20260905043303 | 83 | 168 | 0.0 | 3.0 | 0.00 | 0.04 | 0.04 | 84 | 1007.4 |
| 20260905043204 | 83 | 168 | 1.0 | 3.0 | 0.00 | 0.04 | 0.04 | 84 | 1007.4 |
| 20260905043104 | 83 | 168 | 1.0 | 4.0 | 0.00 | 0.04 | 0.04 | 84 | 1007.4 |
| 20260905043004 | 83 | 172 | 1.0 | 4.0 | 0.00 | 0.04 | 0.04 | 84 | 1007.3 |
| 20260905042903 | 83 | 176 | 1.0 | 4.0 | 0.00 | 0.04 | 0.04 | 84 | 1007.4 |
| 20260905042803 | 83 | 154 | 1.0 | 4.0 | 0.00 | 0.04 | 0.04 | 84 | 1007.3 |
| 20260905042703 | 83 | 161 | 1.0 | 4.0 | 0.00 | 0.04 | 0.04 | 84 | 1007.4 |
| 20260905042604 | 83 | 162 | 1.0 | 4.0 | 0.00 | 0.04 | 0.04 | 84 | 1007.4 |
| 20260905042503 | 83 | 154 | 1.0 | 4.0 | 0.00 | 0.04 | 0.04 | 84 | 1007.4 |
| 20260905042403 | 83 | 151 | 2.0 | 4.0 | 0.00 | 0.04 | 0.04 | 84 | 1007.4 |
| 20260905042307 | 83 | 152 | 2.0 | 4.0 | 0.00 | 0.04 | 0.04 | 84 | 1007.4 |
| 20260905042203 | 83 | 149 | 1.0 | 4.0 | 0.00 | 0.04 | 0.04 | 84 | 1007.4 |
| 20260905042104 | 83 | 152 | 1.0 | 2.0 | 0.00 | 0.04 | 0.04 | 84 | 1007.4 |
| 20260905042004 | 83 | 158 | 0.0 | 2.0 | 0.00 | 0.04 | 0.04 | 84 | 1007.5 |
| 20260905041904 | 83 | 155 | 0.0 | 2.0 | 0.00 | 0.04 | 0.04 | 84 | 1007.4 |
| 20260905041804 | 83 | 155 | 0.0 | 2.0 | 0.00 | 0.04 | 0.04 | 84 | 1007.5 |
| 20260905041704 | 83 | 155 | 0.0 | 2.0 | 0.00 | 0.04 | 0.04 | 84 | 1007.4 |
| 20260905041603 | 83 | 155 | 0.0 | 2.0 | 0.00 | 0.04 | 0.04 | 84 | 1007.5 |
| 20260905041504 | 83 | 155 | 0.0 | 2.0 | 0.00 | 0.04 | 0.04 | 84 | 1007.4 |
| 20260905041403 | 83 | 155 | 0.0 | 2.0 | 0.00 | 0.04 | 0.04 | 84 | 1007.4 |
| 20260905041303 | 83 | 157 | 0.0 | 2.0 | 0.00 | 0.04 | 0.04 | 84 | 1007.4 |
| 20260905041203 | 83 | 157 | 0.0 | 2.0 | 0.00 | 0.04 | 0.04 | 84 | 1007.5 |
| 20260905041104 | 83 | 157 | 0.0 | 2.0 | 0.00 | 0.04 | 0.04 | 84 | 1007.4 |
| 20260905041004 | 83 | 157 | 0.0 | 2.0 | 0.00 | 0.04 | 0.04 | 83 | 1007.4 |
| 20260905040903 | 83 | 157 | 0.0 | 2.0 | 0.00 | 0.04 | 0.04 | 83 | 1007.4 |
| 20260905040802 | 83 | 157 | 1.0 | 4.0 | 0.00 | 0.04 | 0.04 | 83 | 1007.4 |
| 20260905040703 | 83 | 158 | 1.0 | 4.0 | 0.00 | 0.04 | 0.04 | 83 | 1007.4 |
| 20260905040604 | 83 | 158 | 0.0 | 4.0 | 0.00 | 0.04 | 0.04 | 83 | 1007.4 |
| 20260905040503 | 83 | 158 | 1.0 | 4.0 | 0.00 | 0.04 | 0.04 | 83 | 1007.5 |
| 20260905040403 | 83 | 161 | 1.0 | 4.0 | 0.00 | 0.04 | 0.04 | 83 | 1007.5 |
| 20260905040303 | 83 | 158 | 1.0 | 4.0 | 0.00 | 0.04 | 0.04 | 83 | 1007.5 |
| 20260905040203 | 83 | 161 | 1.0 | 4.0 | 0.00 | 0.04 | 0.04 | 83 | 1007.4 |
| 20260905040103 | 83 | 161 | 1.0 | 4.0 | 0.00 | 0.04 | 0.04 | 83 | 1007.4 |
| 20260905040004 | 83 | 161 | 1.0 | 4.0 | 0.00 | 0.04 | 0.04 | 83 | 1007.5 |
| 20260905035903 | 83 | 162 | 1.0 | 4.0 | 0.00 | 0.04 | 0.04 | 83 | 1007.5 |
| 20260905035804 | 83 | 151 | 1.0 | 4.0 | 0.00 | 0.04 | 0.04 | 83 | 1007.4 |
| 20260905035703 | 83 | 151 | 1.0 | 4.0 | 0.00 | 0.04 | 0.04 | 83 | 1007.5 |
| 20260905035602 | 83 | 151 | 0.0 | 4.0 | 0.00 | 0.04 | 0.04 | 83 | 1007.5 |
| 20260905035503 | 83 | 151 | 0.0 | 4.0 | 0.00 | 0.04 | 0.04 | 83 | 1007.5 |
| 20260905035403 | 83 | 152 | 1.0 | 4.0 | 0.00 | 0.04 | 0.04 | 83 | 1007.5 |
| 20260905035306 | 83 | 147 | 1.0 | 4.0 | 0.00 | 0.04 | 0.04 | 83 | 1007.5 |
| 20260905035202 | 83 | 134 | 2.0 | 4.0 | 0.00 | 0.04 | 0.04 | 83 | 1007.5 |
| 20260905035103 | 83 | 128 | 1.0 | 4.0 | 0.00 | 0.04 | 0.04 | 83 | 1007.5 |
| 20260905035004 | 83 | 134 | 1.0 | 4.0 | 0.00 | 0.04 | 0.04 | 83 | 1007.6 |
| 20260905034903 | 83 | 134 | 1.0 | 4.0 | 0.00 | 0.04 | 0.04 | 83 | 1007.5 |
| 20260905034802 | 83 | 134 | 2.0 | 4.0 | 0.00 | 0.04 | 0.04 | 83 | 1007.6 |
| 20260905034705 | 83 | 133 | 2.0 | 4.0 | 0.00 | 0.04 | 0.04 | 83 | 1007.6 |
| 20260905034602 | 83 | 131 | 2.0 | 4.0 | 0.00 | 0.04 | 0.04 | 83 | 1007.6 |
| 20260905034505 | 83 | 164 | 2.0 | 3.0 | 0.00 | 0.04 | 0.04 | 83 | 1007.6 |
| 20260905034403 | 83 | 107 | 2.0 | 3.0 | 0.00 | 0.04 | 0.04 | 82 | 1007.6 |
| 20260905034304 | 83 | 152 | 2.0 | 3.0 | 0.00 | 0.04 | 0.04 | 82 | 1007.6 |
| 20260905034203 | 83 | 154 | 2.0 | 3.0 | 0.00 | 0.04 | 0.04 | 82 | 1007.6 |
| 20260905034104 | 83 | 158 | 2.0 | 3.0 | 0.00 | 0.04 | 0.04 | 82 | 1007.6 |
| 20260905034003 | 83 | 152 | 2.0 | 4.0 | 0.00 | 0.04 | 0.04 | 82 | 1007.6 |
| 20260905033903 | 83 | 152 | 2.0 | 4.0 | 0.00 | 0.04 | 0.04 | 82 | 1007.7 |
| 20260905033803 | 83 | 152 | 2.0 | 4.0 | 0.00 | 0.04 | 0.04 | 82 | 1007.6 |
| 20260905033704 | 83 | 152 | 2.0 | 4.0 | 0.00 | 0.04 | 0.04 | 82 | 1007.6 |
| 20260905033603 | 83 | 152 | 2.0 | 5.0 | 0.00 | 0.04 | 0.04 | 82 | 1007.7 |
| 20260905033504 | 83 | 152 | 2.0 | 6.0 | 0.00 | 0.04 | 0.04 | 82 | 1007.6 |
| 20260905033403 | 83 | 152 | 2.0 | 6.0 | 0.00 | 0.04 | 0.04 | 82 | 1007.5 |
| 20260905033304 | 83 | 152 | 2.0 | 6.0 | 0.00 | 0.04 | 0.04 | 82 | 1007.7 |
| 20260905033203 | 83 | 152 | 2.0 | 6.0 | 0.00 | 0.04 | 0.04 | 82 | 1007.6 |
| 20260905033104 | 83 | 152 | 2.0 | 6.0 | 0.00 | 0.04 | 0.04 | 82 | 1007.6 |
| 20260905033005 | 83 | 127 | 2.0 | 6.0 | 0.00 | 0.04 | 0.04 | 82 | 1007.6 |
| 20260905032904 | 83 | 110 | 2.0 | 6.0 | 0.00 | 0.04 | 0.04 | 82 | 1007.6 |
| 20260905032803 | 83 | 123 | 3.0 | 6.0 | 0.00 | 0.04 | 0.04 | 82 | 1007.6 |
| 20260905032703 | 83 | 149 | 4.0 | 6.0 | 0.00 | 0.04 | 0.04 | 82 | 1007.6 |
| 20260905032603 | 83 | 138 | 3.0 | 6.0 | 0.00 | 0.04 | 0.04 | 82 | 1007.6 |
| 20260905032504 | 84 | 130 | 3.0 | 4.0 | 0.00 | 0.04 | 0.04 | 82 | 1007.5 |
| 20260905032403 | 84 | 131 | 3.0 | 4.0 | 0.00 | 0.04 | 0.04 | 82 | 1007.5 |
| 20260905032305 | 84 | 118 | 2.0 | 4.0 | 0.00 | 0.04 | 0.04 | 82 | 1007.5 |
| 20260905032204 | 84 | 161 | 2.0 | 4.0 | 0.00 | 0.04 | 0.04 | 81 | 1007.5 |
| 20260905032104 | 0 | 0.0 | 0.0 | 0.00 | 0.04 | 0.04 | 1007.5 | ||
| 20260905032003 | 0 | 0.0 | 0.0 | 0.00 | 0.04 | 0.04 | 1007.6 | ||
| 20260905031904 | 0 | 0.0 | 0.0 | 0.00 | 0.04 | 0.04 | 1007.6 | ||
| 20260905031803 | 0 | 0.0 | 0.0 | 0.00 | 0.04 | 0.04 | 1007.5 | ||
| 20260905031705 | 0 | 0.0 | 0.0 | 0.00 | 0.04 | 0.04 | 1007.6 | ||
| 20260905031605 | 84 | 120 | 3.0 | 4.0 | 0.00 | 0.04 | 0.04 | 81 | 1007.6 |
| 20260905031504 | 84 | 120 | 3.0 | 4.0 | 0.00 | 0.04 | 0.04 | 81 | 1007.6 |
| 20260905031404 | 84 | 120 | 3.0 | 6.0 | 0.00 | 0.04 | 0.04 | 81 | 1007.5 |
| 20260905031305 | 84 | 120 | 3.0 | 6.0 | 0.00 | 0.04 | 0.04 | 81 | 1007.5 |
| 20260905031203 | 84 | 120 | 3.0 | 6.0 | 0.00 | 0.04 | 0.04 | 81 | 1007.5 |
| 20260905031103 | 84 | 120 | 3.0 | 6.0 | 0.00 | 0.04 | 0.04 | 81 | 1007.6 |
| 20260905031005 | 84 | 120 | 3.0 | 6.0 | 0.00 | 0.04 | 0.04 | 81 | 1007.6 |
| 20260905030903 | 84 | 120 | 3.0 | 6.0 | 0.00 | 0.04 | 0.04 | 81 | 1007.6 |
| 20260905030803 | 84 | 120 | 3.0 | 6.0 | 0.00 | 0.04 | 0.04 | 81 | 1007.6 |
| 20260905030704 | 84 | 120 | 3.0 | 6.0 | 0.00 | 0.04 | 0.04 | 81 | 1007.6 |
| 20260905030604 | 84 | 151 | 3.0 | 6.0 | 0.00 | 0.04 | 0.04 | 81 | 1007.7 |
| 20260905030502 | 84 | 145 | 4.0 | 6.0 | 0.00 | 0.04 | 0.04 | 80 | 1007.6 |
| 20260905030404 | 84 | 152 | 3.0 | 5.0 | 0.00 | 0.04 | 0.04 | 80 | 1007.7 |
| 20260905030304 | 84 | 144 | 2.0 | 5.0 | 0.00 | 0.04 | 0.04 | 80 | 1007.6 |
| 20260905030204 | 84 | 149 | 3.0 | 5.0 | 0.00 | 0.04 | 0.04 | 80 | 1007.7 |
| 20260905030105 | 84 | 155 | 3.0 | 5.0 | 0.00 | 0.04 | 0.04 | 80 | 1007.6 |
| 20260905030000 | 84 | 148 | 3.0 | 4.0 | 0.00 | 0.04 | 0.04 | 80 | 1007.7 |
| 20260905025856 | 84 | 120 | 2.0 | 5.0 | 0.00 | 0.04 | 0.04 | 80 | 1007.6 |
| 20260905025749 | 84 | 148 | 2.0 | 5.0 | 0.00 | 0.04 | 0.04 | 80 | 1007.6 |
| 20260905025642 | 84 | 145 | 3.0 | 5.0 | 0.00 | 0.04 | 0.04 | 80 | 1007.7 |
| 20260905025531 | 84 | 134 | 3.0 | 5.0 | 0.00 | 0.04 | 0.04 | 80 | 1007.6 |
| 20260905025432 | 84 | 157 | 3.0 | 5.0 | 0.00 | 0.04 | 0.04 | 80 | 1007.7 |
| 20260905025332 | 84 | 165 | 3.0 | 5.0 | 0.00 | 0.04 | 0.04 | 80 | 1007.6 |
| 20260905025231 | 84 | 131 | 2.0 | 5.0 | 0.00 | 0.04 | 0.04 | 79 | 1007.6 |
| 20260905025132 | 84 | 131 | 2.0 | 5.0 | 0.00 | 0.04 | 0.04 | 79 | 1007.7 |
| 20260905025031 | 84 | 127 | 2.0 | 5.0 | 0.00 | 0.04 | 0.04 | 79 | 1007.6 |
| 20260905024932 | 84 | 118 | 2.0 | 5.0 | 0.00 | 0.04 | 0.04 | 79 | 1007.5 |
| 20260905024832 | 84 | 155 | 2.0 | 5.0 | 0.00 | 0.04 | 0.04 | 79 | 1007.5 |
| 20260905024732 | 84 | 149 | 2.0 | 5.0 | 0.00 | 0.04 | 0.04 | 79 | 1007.4 |
| 20260905024631 | 84 | 145 | 2.0 | 5.0 | 0.00 | 0.04 | 0.04 | 79 | 1007.5 |
| 20260905024532 | 84 | 133 | 3.0 | 5.0 | 0.00 | 0.04 | 0.04 | 79 | 1007.5 |
| 20260905024431 | 84 | 113 | 2.0 | 5.0 | 0.00 | 0.04 | 0.04 | 79 | 1007.5 |
| 20260905024332 | 84 | 138 | 1.0 | 5.0 | 0.00 | 0.04 | 0.04 | 79 | 1007.4 |
| 20260905024231 | 84 | 117 | 2.0 | 5.0 | 0.00 | 0.04 | 0.04 | 78 | 1007.4 |
| 20260905024132 | 84 | 111 | 3.0 | 5.0 | 0.00 | 0.04 | 0.04 | 78 | 1007.4 |
| 20260905024032 | 84 | 147 | 3.0 | 5.0 | 0.00 | 0.04 | 0.04 | 78 | 1007.4 |
| 20260905023930 | 84 | 161 | 3.0 | 5.0 | 0.00 | 0.04 | 0.04 | 78 | 1007.4 |
| 20260905023831 | 84 | 128 | 2.0 | 2.0 | 0.00 | 0.04 | 0.04 | 78 | 1007.4 |
| 20260905023730 | 84 | 130 | 1.0 | 2.0 | 0.00 | 0.04 | 0.04 | 78 | 1007.4 |
| 20260905023632 | 83 | 130 | 1.0 | 2.0 | 0.00 | 0.04 | 0.04 | 78 | 1007.4 |
| 20260905023531 | 83 | 127 | 0.0 | 2.0 | 0.00 | 0.04 | 0.04 | 78 | 1007.4 |
| 20260905023432 | 83 | 127 | 0.0 | 2.0 | 0.00 | 0.04 | 0.04 | 78 | 1007.3 |
| 20260905023332 | 83 | 127 | 0.0 | 2.0 | 0.00 | 0.04 | 0.04 | 78 | 1007.3 |
| 20260905023231 | 83 | 125 | 0.0 | 2.0 | 0.00 | 0.04 | 0.04 | 78 | 1007.4 |
| 20260905023131 | 83 | 124 | 0.0 | 2.0 | 0.00 | 0.04 | 0.04 | 78 | 1007.4 |
| 20260905023031 | 83 | 124 | 0.0 | 2.0 | 0.00 | 0.04 | 0.04 | 78 | 1007.3 |
| 20260905022933 | 83 | 124 | 0.0 | 2.0 | 0.00 | 0.04 | 0.04 | 78 | 1007.3 |
| 20260905022832 | 83 | 124 | 1.0 | 2.0 | 0.00 | 0.04 | 0.04 | 78 | 1007.3 |
| 20260905022731 | 83 | 124 | 0.0 | 2.0 | 0.00 | 0.04 | 0.04 | 78 | 1007.3 |
| 20260905022630 | 83 | 114 | 0.0 | 0.0 | 0.00 | 0.04 | 0.04 | 78 | 1007.2 |
| 20260905022531 | 83 | 114 | 0.0 | 0.0 | 0.00 | 0.04 | 0.04 | 79 | 1007.3 |
| 20260905022431 | 83 | 110 | 0.0 | 0.0 | 0.00 | 0.04 | 0.04 | 79 | 1007.2 |
| 20260905022332 | 83 | 110 | 0.0 | 0.0 | 0.00 | 0.04 | 0.04 | 79 | 1007.2 |
| 20260905022232 | 83 | 110 | 0.0 | 0.0 | 0.00 | 0.04 | 0.04 | 79 | 1007.2 |
| 20260905022130 | 83 | 110 | 0.0 | 0.0 | 0.00 | 0.04 | 0.04 | 79 | 1007.1 |
| 20260905022031 | 83 | 110 | 0.0 | 0.0 | 0.00 | 0.04 | 0.04 | 79 | 1007.1 |
| 20260905021931 | 83 | 110 | 0.0 | 0.0 | 0.00 | 0.04 | 0.04 | 79 | 1007.0 |
| 20260905021831 | 83 | 110 | 0.0 | 0.0 | 0.00 | 0.04 | 0.04 | 79 | 1007.1 |
| 20260905021728 | 83 | 110 | 0.0 | 0.0 | 0.00 | 0.04 | 0.04 | 79 | 1007.1 |
| 20260905021630 | 83 | 110 | 0.0 | 0.0 | 0.00 | 0.04 | 0.04 | 79 | 1007.0 |
| 20260905021529 | 83 | 110 | 0.0 | 0.0 | 0.00 | 0.04 | 0.04 | 79 | 1007.0 |
| 20260905021429 | 83 | 110 | 0.0 | 0.0 | 0.00 | 0.04 | 0.04 | 79 | 1007.0 |
| 20260905021329 | 83 | 110 | 0.0 | 0.0 | 0.00 | 0.04 | 0.04 | 79 | 1007.1 |
| 20260905021228 | 83 | 110 | 0.0 | 0.0 | 0.00 | 0.04 | 0.04 | 79 | 1007.0 |
| 20260905021128 | 83 | 110 | 0.0 | 0.0 | 0.00 | 0.04 | 0.04 | 79 | 1007.0 |
| 20260905021028 | 83 | 110 | 0.0 | 0.0 | 0.00 | 0.04 | 0.04 | 78 | 1007.1 |
| 20260905020929 | 83 | 110 | 0.0 | 0.0 | 0.00 | 0.04 | 0.04 | 78 | 1007.1 |
| 20260905020827 | 83 | 110 | 0.0 | 0.0 | 0.00 | 0.04 | 0.04 | 78 | 1007.1 |
| 20260905020728 | 83 | 110 | 0.0 | 0.0 | 0.00 | 0.04 | 0.04 | 78 | 1007.1 |
| 20260905020627 | 83 | 110 | 0.0 | 1.0 | 0.00 | 0.04 | 0.04 | 78 | 1007.0 |
| 20260905020527 | 83 | 110 | 0.0 | 1.0 | 0.00 | 0.04 | 0.04 | 78 | 1007.0 |
| 20260905020427 | 83 | 110 | 0.0 | 1.0 | 0.00 | 0.04 | 0.04 | 78 | 1007.0 |
| 20260905020329 | 83 | 110 | 0.0 | 2.0 | 0.00 | 0.04 | 0.04 | 77 | 1006.9 |
| 20260905020229 | 83 | 110 | 0.0 | 2.0 | 0.00 | 0.04 | 0.04 | 77 | 1006.9 |
| 20260905020129 | 83 | 110 | 0.0 | 3.0 | 0.00 | 0.04 | 0.04 | 78 | 1007.0 |
| 20260905020028 | 83 | 110 | 0.0 | 3.0 | 0.00 | 0.04 | 0.04 | 78 | 1006.9 |
| 20260905015928 | 83 | 110 | 0.0 | 3.0 | 0.00 | 0.04 | 0.04 | 77 | 1006.9 |
| 20260905015827 | 83 | 110 | 0.0 | 4.0 | 0.00 | 0.04 | 0.04 | 77 | 1006.8 |
| 20260905015728 | 83 | 110 | 1.0 | 4.0 | 0.00 | 0.04 | 0.04 | 77 | 1006.9 |
| 20260905015629 | 83 | 110 | 1.0 | 4.0 | 0.00 | 0.04 | 0.04 | 77 | 1006.9 |
| 20260905015528 | 83 | 110 | 1.0 | 4.0 | 0.00 | 0.04 | 0.04 | 77 | 1006.8 |
| 20260905015429 | 83 | 110 | 2.0 | 4.0 | 0.00 | 0.04 | 0.04 | 77 | 1006.8 |
| 20260905015329 | 83 | 110 | 2.0 | 4.0 | 0.00 | 0.04 | 0.04 | 77 | 1006.9 |
| 20260905015228 | 83 | 110 | 2.0 | 4.0 | 0.00 | 0.04 | 0.04 | 77 | 1006.9 |
| 20260905015127 | 83 | 109 | 2.0 | 4.0 | 0.00 | 0.04 | 0.04 | 76 | 1006.8 |
| 20260905015029 | 83 | 109 | 3.0 | 4.0 | 0.00 | 0.04 | 0.04 | 76 | 1006.7 |
| 20260905014928 | 83 | 107 | 3.0 | 4.0 | 0.00 | 0.04 | 0.04 | 76 | 1006.8 |
| 20260905014827 | 83 | 109 | 2.0 | 5.0 | 0.00 | 0.04 | 0.04 | 76 | 1006.8 |
| 20260905014728 | 83 | 111 | 2.0 | 5.0 | 0.00 | 0.04 | 0.04 | 76 | 1006.8 |
| 20260905014627 | 83 | 109 | 2.0 | 5.0 | 0.00 | 0.04 | 0.04 | 76 | 1006.7 |
| 20260905014528 | 83 | 109 | 2.0 | 5.0 | 0.00 | 0.04 | 0.04 | 76 | 1006.7 |
| 20260905014427 | 83 | 110 | 2.0 | 5.0 | 0.00 | 0.04 | 0.04 | 76 | 1006.7 |
| 20260905014329 | 83 | 110 | 2.0 | 5.0 | 0.00 | 0.04 | 0.04 | 76 | 1006.7 |
| 20260905014226 | 83 | 110 | 1.0 | 5.0 | 0.00 | 0.04 | 0.04 | 76 | 1006.7 |
| 20260905014127 | 83 | 109 | 2.0 | 5.0 | 0.00 | 0.04 | 0.04 | 76 | 1006.8 |
| 20260905014028 | 83 | 110 | 3.0 | 5.0 | 0.00 | 0.04 | 0.04 | 76 | 1006.7 |
| 20260905013928 | 83 | 109 | 4.0 | 5.0 | 0.00 | 0.04 | 0.04 | 76 | 1006.8 |
| 20260905013828 | 83 | 106 | 4.0 | 7.0 | 0.00 | 0.04 | 0.04 | 76 | 1006.7 |
| 20260905013729 | 83 | 109 | 4.0 | 7.0 | 0.00 | 0.04 | 0.04 | 76 | 1006.8 |
| 20260905013628 | 83 | 109 | 4.0 | 7.0 | 0.00 | 0.04 | 0.04 | 76 | 1006.7 |
| 20260905013527 | 83 | 103 | 4.0 | 7.0 | 0.00 | 0.04 | 0.04 | 76 | 1006.8 |
| 20260905013429 | 83 | 83 | 4.0 | 7.0 | 0.00 | 0.04 | 0.04 | 76 | 1006.7 |
| 20260905013328 | 83 | 83 | 4.0 | 7.0 | 0.00 | 0.04 | 0.04 | 76 | 1006.7 |
| 20260905013228 | 83 | 83 | 4.0 | 7.0 | 0.00 | 0.04 | 0.04 | 76 | 1006.7 |
| 20260905013126 | 83 | 85 | 4.0 | 7.0 | 0.00 | 0.04 | 0.04 | 76 | 1006.6 |
| 20260905013027 | 83 | 104 | 4.0 | 7.0 | 0.00 | 0.04 | 0.04 | 76 | 1006.7 |
| 20260905012928 | 83 | 85 | 4.0 | 7.0 | 0.00 | 0.04 | 0.04 | 76 | 1006.6 |
| 20260905012828 | 83 | 72 | 4.0 | 6.0 | 0.00 | 0.04 | 0.04 | 76 | 1006.6 |
| 20260905012726 | 83 | 89 | 4.0 | 6.0 | 0.00 | 0.04 | 0.04 | 76 | 1006.5 |
| 20260905012628 | 83 | 90 | 5.0 | 6.0 | 0.00 | 0.04 | 0.04 | 76 | 1006.6 |
| 20260905012527 | 83 | 93 | 5.0 | 6.0 | 0.00 | 0.04 | 0.04 | 76 | 1006.6 |
| 20260905012428 | 83 | 78 | 4.0 | 6.0 | 0.00 | 0.04 | 0.04 | 76 | 1006.6 |
| 20260905012328 | 83 | 96 | 4.0 | 6.0 | 0.00 | 0.04 | 0.04 | 76 | 1006.6 |
| 20260905012227 | 83 | 82 | 4.0 | 6.0 | 0.00 | 0.04 | 0.04 | 76 | 1006.5 |
| 20260905012128 | 83 | 66 | 3.0 | 6.0 | 0.00 | 0.04 | 0.04 | 76 | 1006.5 |
| 20260905012027 | 83 | 92 | 2.0 | 7.0 | 0.00 | 0.04 | 0.04 | 75 | 1006.4 |
| 20260905011928 | 83 | 93 | 3.0 | 7.0 | 0.00 | 0.04 | 0.04 | 75 | 1006.4 |
| 20260905011827 | 83 | 96 | 3.0 | 7.0 | 0.00 | 0.04 | 0.04 | 75 | 1006.4 |
| 20260905011727 | 83 | 97 | 4.0 | 9.0 | 0.00 | 0.04 | 0.04 | 73 | 1006.4 |
| 20260905011627 | 83 | 89 | 5.0 | 9.0 | 0.00 | 0.04 | 0.04 | 73 | 1006.4 |
| 20260905011526 | 84 | 106 | 5.0 | 9.0 | 0.00 | 0.04 | 0.04 | 73 | 1006.5 |
| 20260905011429 | 84 | 83 | 6.0 | 9.0 | 0.00 | 0.04 | 0.04 | 73 | 1006.5 |
| 20260905011328 | 84 | 83 | 6.0 | 11.0 | 0.00 | 0.04 | 0.04 | 73 | 1006.5 |
| 20260905011228 | 84 | 94 | 6.0 | 14.0 | 0.00 | 0.04 | 0.04 | 73 | 1006.4 |
| 20260905011126 | 84 | 87 | 6.0 | 14.0 | 0.00 | 0.04 | 0.04 | 73 | 1006.4 |
| 20260905011027 | 84 | 92 | 5.0 | 14.0 | 0.00 | 0.04 | 0.04 | 73 | 1006.5 |
| 20260905010927 | 85 | 109 | 6.0 | 14.0 | 0.00 | 0.04 | 0.04 | 73 | 1006.5 |
| 20260905010828 | 85 | 109 | 6.0 | 14.0 | 0.00 | 0.04 | 0.04 | 72 | 1006.5 |
| 20260905010728 | 85 | 90 | 5.0 | 14.0 | 0.00 | 0.04 | 0.04 | 72 | 1006.5 |
| 20260905010626 | 85 | 140 | 6.0 | 14.0 | 0.00 | 0.04 | 0.04 | 72 | 1006.5 |
| 20260905010529 | 86 | 99 | 7.0 | 14.0 | 0.00 | 0.04 | 0.04 | 72 | 1006.5 |
| 20260905010428 | 86 | 82 | 9.0 | 14.0 | 0.00 | 0.04 | 0.04 | 72 | 1006.5 |
| 20260905010327 | 86 | 93 | 9.0 | 14.0 | 0.00 | 0.04 | 0.04 | 72 | 1006.5 |
| 20260905010226 | 87 | 83 | 7.0 | 11.0 | 0.00 | 0.04 | 0.04 | 72 | 1006.5 |
| 20260905010128 | 87 | 94 | 6.0 | 11.0 | 0.00 | 0.04 | 0.04 | 72 | 1006.4 |
| 20260905010027 | 87 | 92 | 6.0 | 10.0 | 0.00 | 0.04 | 0.04 | 72 | 1006.5 |
| 20260905005927 | 87 | 92 | 8.0 | 10.0 | 0.00 | 0.04 | 0.04 | 71 | 1006.5 |
| 20260905005825 | 87 | 89 | 7.0 | 10.0 | 0.00 | 0.04 | 0.04 | 71 | 1006.4 |
| 20260905005727 | 87 | 83 | 5.0 | 9.0 | 0.00 | 0.04 | 0.04 | 71 | 1006.5 |
| 20260905005626 | 87 | 94 | 5.0 | 9.0 | 0.00 | 0.04 | 0.04 | 71 | 1006.4 |
| 20260905005527 | 88 | 62 | 4.0 | 9.0 | 0.00 | 0.04 | 0.04 | 71 | 1006.4 |
| 20260905005427 | 88 | 85 | 2.0 | 9.0 | 0.00 | 0.04 | 0.04 | 71 | 1006.4 |
| 20260905005325 | 88 | 90 | 2.0 | 9.0 | 0.00 | 0.04 | 0.04 | 71 | 1006.3 |
| 20260905005227 | 88 | 93 | 3.0 | 9.0 | 0.00 | 0.04 | 0.04 | 71 | 1006.3 |
| 20260905005127 | 88 | 96 | 5.0 | 9.0 | 0.00 | 0.04 | 0.04 | 71 | 1006.4 |
| 20260905005025 | 88 | 97 | 6.0 | 9.0 | 0.00 | 0.04 | 0.04 | 71 | 1006.4 |
| 20260905004926 | 88 | 94 | 7.0 | 9.0 | 0.00 | 0.04 | 0.04 | 72 | 1006.5 |
| 20260905004827 | 88 | 104 | 5.0 | 7.0 | 0.00 | 0.04 | 0.04 | 71 | 1006.5 |
| 20260905004726 | 88 | 114 | 5.0 | 6.0 | 0.00 | 0.04 | 0.04 | 71 | 1006.4 |
| 20260905004626 | 88 | 109 | 5.0 | 6.0 | 0.00 | 0.04 | 0.04 | 71 | 1006.3 |
| 20260905004527 | 88 | 99 | 5.0 | 6.0 | 0.00 | 0.04 | 0.04 | 71 | 1006.4 |
| 20260905004427 | 88 | 107 | 4.0 | 5.0 | 0.00 | 0.04 | 0.04 | 71 | 1006.4 |
| 20260905004326 | 88 | 110 | 4.0 | 5.0 | 0.00 | 0.04 | 0.04 | 71 | 1006.3 |
| 20260905004225 | 88 | 109 | 3.0 | 5.0 | 0.00 | 0.04 | 0.04 | 71 | 1006.4 |
| 20260905004127 | 88 | 138 | 3.0 | 5.0 | 0.00 | 0.04 | 0.04 | 72 | 1006.2 |
| 20260905004027 | 89 | 110 | 4.0 | 5.0 | 0.00 | 0.04 | 0.04 | 71 | 1006.3 |
| 20260905003926 | 89 | 114 | 4.0 | 5.0 | 0.00 | 0.04 | 0.04 | 71 | 1006.3 |
| 20260905003827 | 89 | 144 | 4.0 | 5.0 | 0.00 | 0.04 | 0.04 | 71 | 1006.3 |
| 20260905003726 | 89 | 120 | 4.0 | 5.0 | 0.00 | 0.04 | 0.04 | 71 | 1006.3 |
| 20260905003626 | 89 | 133 | 3.0 | 9.0 | 0.00 | 0.04 | 0.04 | 71 | 1006.3 |
| 20260905003526 | 89 | 128 | 4.0 | 9.0 | 0.00 | 0.04 | 0.04 | 70 | 1006.2 |
| 20260905003426 | 89 | 127 | 4.0 | 9.0 | 0.00 | 0.04 | 0.04 | 70 | 1006.3 |
| 20260905003326 | 89 | 128 | 5.0 | 9.0 | 0.00 | 0.04 | 0.04 | 70 | 1006.3 |
| 20260905003224 | 89 | 128 | 5.0 | 9.0 | 0.00 | 0.04 | 0.04 | 70 | 1006.3 |
| 20260905003124 | 89 | 128 | 5.0 | 9.0 | 0.00 | 0.04 | 0.04 | 70 | 1006.2 |
| 20260905003026 | 89 | 128 | 5.0 | 9.0 | 0.00 | 0.04 | 0.04 | 70 | 1006.2 |
| 20260905002925 | 89 | 128 | 5.0 | 9.0 | 0.00 | 0.04 | 0.04 | 70 | 1006.2 |
| 20260905002825 | 89 | 128 | 5.0 | 9.0 | 0.00 | 0.04 | 0.04 | 70 | 1006.2 |
| 20260905002723 | 89 | 110 | 5.0 | 9.0 | 0.00 | 0.04 | 0.04 | 70 | 1006.1 |
| 20260905002625 | 89 | 102 | 5.0 | 9.0 | 0.00 | 0.04 | 0.04 | 70 | 1006.1 |
| 20260905002523 | 89 | 106 | 5.0 | 9.0 | 0.00 | 0.04 | 0.04 | 69 | 1006.0 |
| 20260905002425 | 89 | 93 | 4.0 | 9.0 | 0.00 | 0.04 | 0.04 | 69 | 1006.0 |
| 20260905002324 | 89 | 99 | 4.0 | 9.0 | 0.00 | 0.04 | 0.04 | 69 | 1006.0 |
| 20260905002225 | 90 | 113 | 4.0 | 9.0 | 0.00 | 0.04 | 0.04 | 69 | 1006.0 |
| 20260905002123 | 90 | 111 | 4.0 | 9.0 | 0.00 | 0.04 | 0.04 | 68 | 1006.0 |
| 20260905002024 | 90 | 113 | 4.0 | 9.0 | 0.00 | 0.04 | 0.04 | 68 | 1006.0 |
| 20260905001925 | 90 | 130 | 5.0 | 9.0 | 0.00 | 0.04 | 0.04 | 68 | 1005.9 |
| 20260905001825 | 90 | 103 | 7.0 | 9.0 | 0.00 | 0.04 | 0.04 | 68 | 1006.0 |
| 20260905001725 | 90 | 111 | 6.0 | 9.0 | 0.00 | 0.04 | 0.04 | 68 | 1005.9 |
| 20260905001624 | 90 | 104 | 5.0 | 6.0 | 0.00 | 0.04 | 0.04 | 67 | 1005.9 |
| 20260905001524 | 90 | 103 | 5.0 | 6.0 | 0.00 | 0.04 | 0.04 | 67 | 1006.0 |
| 20260905001425 | 90 | 93 | 5.0 | 6.0 | 0.00 | 0.04 | 0.04 | 66 | 1006.0 |
| 20260905001326 | 91 | 133 | 0.0 | 0.0 | 0.00 | 0.04 | 0.04 | 66 | 1006.0 |
| 20260905001225 | 91 | 133 | 0.0 | 0.0 | 0.00 | 0.04 | 0.04 | 66 | 1005.9 |
| 20260905001126 | 91 | 133 | 0.0 | 0.0 | 0.00 | 0.04 | 0.04 | 66 | 1005.9 |
| 20260905001024 | 91 | 133 | 0.0 | 2.0 | 0.00 | 0.04 | 0.04 | 66 | 1005.9 |
| 20260905000924 | 91 | 133 | 0.0 | 3.0 | 0.00 | 0.04 | 0.04 | 67 | 1005.8 |
| 20260905000826 | 91 | 120 | 0.0 | 5.0 | 0.00 | 0.04 | 0.04 | 67 | 1005.9 |
| 20260905000723 | 91 | 117 | 0.0 | 5.0 | 0.00 | 0.04 | 0.04 | 66 | 1005.8 |
| 20260905000625 | 91 | 116 | 0.0 | 5.0 | 0.00 | 0.04 | 0.04 | 66 | 1005.8 |
| 20260905000523 | 91 | 117 | 0.0 | 5.0 | 0.00 | 0.04 | 0.04 | 66 | 1005.8 |
| 20260905000425 | 91 | 131 | 2.0 | 5.0 | 0.00 | 0.04 | 0.04 | 66 | 1005.8 |
| 20260905000325 | 91 | 131 | 2.0 | 5.0 | 0.00 | 0.04 | 0.04 | 66 | 1005.8 |
| 20260905000226 | 91 | 131 | 2.0 | 5.0 | 0.00 | 0.04 | 0.04 | 66 | 1005.7 |
| 20260905000125 | 91 | 131 | 2.0 | 5.0 | 0.00 | 0.04 | 0.04 | 66 | 1005.8 |
| 20260905000023 | 91 | 131 | 3.0 | 5.0 | 0.00 | 0.04 | 0.04 | 66 | 1005.8 |
| 20260904235923 | 91 | 106 | 4.0 | 5.0 | 0.00 | 0.04 | 0.04 | 65 | 1005.8 |
| 20260904235823 | 91 | 113 | 3.0 | 5.0 | 0.00 | 0.04 | 0.04 | 65 | 1005.7 |
| 20260904235722 | 91 | 106 | 3.0 | 5.0 | 0.00 | 0.04 | 0.04 | 65 | 1005.7 |
| 20260904235623 | 91 | 144 | 2.0 | 4.0 | 0.00 | 0.04 | 0.04 | 65 | 1005.8 |
| 20260904235522 | 91 | 161 | 2.0 | 4.0 | 0.00 | 0.04 | 0.04 | 65 | 1005.7 |
| 20260904235423 | 91 | 140 | 3.0 | 4.0 | 0.00 | 0.04 | 0.04 | 66 | 1005.8 |
| 20260904235324 | 91 | 162 | 2.0 | 4.0 | 0.00 | 0.04 | 0.04 | 66 | 1005.7 |
| 20260904235222 | 91 | 171 | 2.0 | 4.0 | 0.00 | 0.04 | 0.04 | 66 | 1005.8 |
| 20260904235124 | 91 | 131 | 0.0 | 2.0 | 0.00 | 0.04 | 0.04 | 66 | 1005.8 |
| 20260904235022 | 91 | 118 | 0.0 | 0.0 | 0.00 | 0.04 | 0.04 | 66 | 1005.8 |
| 20260904234922 | 91 | 179 | 0.0 | 0.0 | 0.00 | 0.04 | 0.04 | 65 | 1005.9 |
| 20260904234822 | 91 | 185 | 0.0 | 0.0 | 0.00 | 0.04 | 0.04 | 66 | 1005.8 |
| 20260904234723 | 91 | 183 | 0.0 | 1.0 | 0.00 | 0.04 | 0.04 | 65 | 1005.8 |
| 20260904234624 | 91 | 200 | 0.0 | 1.0 | 0.00 | 0.04 | 0.04 | 66 | 1005.7 |
| 20260904234522 | 91 | 199 | 0.0 | 1.0 | 0.00 | 0.04 | 0.04 | 66 | 1005.7 |
| 20260904234424 | 91 | 199 | 0.0 | 1.0 | 0.00 | 0.04 | 0.04 | 66 | 1005.8 |
| 20260904234323 | 91 | 199 | 0.0 | 4.0 | 0.00 | 0.04 | 0.04 | 66 | 1005.8 |
| 20260904234224 | 91 | 199 | 0.0 | 4.0 | 0.00 | 0.04 | 0.04 | 65 | 1005.7 |
| 20260904234123 | 91 | 199 | 0.0 | 4.0 | 0.00 | 0.04 | 0.04 | 65 | 1005.8 |
| 20260904234024 | 91 | 199 | 0.0 | 4.0 | 0.00 | 0.04 | 0.04 | 65 | 1005.8 |
| 20260904233924 | 91 | 199 | 0.0 | 4.0 | 0.00 | 0.04 | 0.04 | 65 | 1005.8 |
| 20260904233822 | 91 | 199 | 0.0 | 4.0 | 0.00 | 0.04 | 0.04 | 66 | 1005.9 |
| 20260904233723 | 91 | 199 | 0.0 | 4.0 | 0.00 | 0.04 | 0.04 | 66 | 1005.9 |
| 20260904233622 | 91 | 199 | 0.0 | 4.0 | 0.00 | 0.04 | 0.04 | 65 | 1005.8 |
| 20260904233522 | 91 | 199 | 1.0 | 4.0 | 0.00 | 0.04 | 0.04 | 64 | 1005.9 |
| 20260904233422 | 91 | 199 | 2.0 | 4.0 | 0.00 | 0.04 | 0.04 | 64 | 1005.8 |
| 20260904233324 | 91 | 180 | 1.0 | 4.0 | 0.00 | 0.04 | 0.04 | 64 | 1005.8 |
| 20260904233224 | 91 | 161 | 0.0 | 3.0 | 0.00 | 0.04 | 0.04 | 64 | 1005.8 |
| 20260904233123 | 91 | 161 | 1.0 | 3.0 | 0.00 | 0.04 | 0.04 | 65 | 1005.8 |
| 20260904233024 | 91 | 161 | 2.0 | 3.0 | 0.00 | 0.04 | 0.04 | 65 | 1005.9 |
| 20260904232922 | 91 | 161 | 2.0 | 3.0 | 0.00 | 0.04 | 0.04 | 65 | 1005.8 |
| 20260904232823 | 91 | 162 | 1.0 | 3.0 | 0.00 | 0.04 | 0.04 | 65 | 1005.8 |
| 20260904232724 | 91 | 162 | 1.0 | 3.0 | 0.00 | 0.04 | 0.04 | 65 | 1005.8 |
| 20260904232623 | 91 | 162 | 1.0 | 3.0 | 0.00 | 0.04 | 0.04 | 64 | 1005.9 |
| 20260904232524 | 91 | 162 | 0.0 | 3.0 | 0.00 | 0.04 | 0.04 | 65 | 1005.8 |
| 20260904232424 | 91 | 162 | 0.0 | 3.0 | 0.00 | 0.04 | 0.04 | 65 | 1005.7 |
| 20260904232324 | 91 | 162 | 1.0 | 6.0 | 0.00 | 0.04 | 0.04 | 65 | 1005.8 |
| 20260904232228 | 91 | 162 | 2.0 | 6.0 | 0.00 | 0.04 | 0.04 | 64 | 1005.8 |
| 20260904232124 | 91 | 162 | 2.0 | 6.0 | 0.00 | 0.04 | 0.04 | 65 | 1005.8 |
| 20260904232021 | 91 | 169 | 1.0 | 6.0 | 0.00 | 0.04 | 0.04 | 66 | 1005.7 |
| 20260904231924 | 91 | 192 | 0.0 | 6.0 | 0.00 | 0.04 | 0.04 | 65 | 1005.8 |
| 20260904231823 | 91 | 192 | 0.0 | 6.0 | 0.00 | 0.04 | 0.04 | 65 | 1005.8 |
| 20260904231722 | 91 | 192 | 1.0 | 6.0 | 0.00 | 0.04 | 0.04 | 65 | 1005.7 |
| 20260904231623 | 91 | 192 | 1.0 | 6.0 | 0.00 | 0.04 | 0.04 | 65 | 1005.7 |
| 20260904231522 | 91 | 195 | 2.0 | 6.0 | 0.00 | 0.04 | 0.04 | 64 | 1005.7 |
| 20260904231421 | 91 | 199 | 3.0 | 6.0 | 0.00 | 0.04 | 0.04 | 65 | 1005.8 |
| 20260904231322 | 91 | 121 | 3.0 | 5.0 | 0.00 | 0.04 | 0.04 | 65 | 1005.7 |
| 20260904231222 | 91 | 107 | 1.0 | 4.0 | 0.00 | 0.04 | 0.04 | 65 | 1005.7 |
| 20260904231123 | 91 | 128 | 2.0 | 3.0 | 0.00 | 0.04 | 0.04 | 65 | 1005.7 |
| 20260904231018 | 91 | 128 | 2.0 | 3.0 | 0.00 | 0.04 | 0.04 | 65 | 1005.7 |
| 20260904230915 | 91 | 130 | 2.0 | 3.0 | 0.00 | 0.04 | 0.04 | 65 | 1005.7 |
| 20260904230806 | 91 | 131 | 1.0 | 3.0 | 0.00 | 0.04 | 0.04 | 65 | 1005.7 |
| 20260904230706 | 91 | 144 | 0.0 | 3.0 | 0.00 | 0.04 | 0.04 | 65 | 1005.7 |
| 20260904230603 | 91 | 164 | 0.0 | 3.0 | 0.00 | 0.04 | 0.04 | 64 | 1005.7 |
| 20260904230503 | 91 | 168 | 0.0 | 3.0 | 0.00 | 0.04 | 0.04 | 64 | 1005.8 |
| 20260904230403 | 91 | 168 | 0.0 | 3.0 | 0.00 | 0.04 | 0.04 | 64 | 1005.8 |
| 20260904230302 | 91 | 166 | 0.0 | 3.0 | 0.00 | 0.04 | 0.04 | 64 | 1005.8 |
| 20260904230203 | 91 | 166 | 0.0 | 4.0 | 0.00 | 0.04 | 0.04 | 64 | 1005.7 |
| 20260904230104 | 91 | 166 | 1.0 | 6.0 | 0.00 | 0.04 | 0.04 | 63 | 1005.8 |
| 20260904230003 | 91 | 168 | 1.0 | 6.0 | 0.00 | 0.04 | 0.04 | 63 | 1005.8 |
| 20260904225902 | 91 | 166 | 2.0 | 6.0 | 0.00 | 0.04 | 0.04 | 63 | 1005.8 |
| 20260904225804 | 91 | 161 | 2.0 | 6.0 | 0.00 | 0.04 | 0.04 | 64 | 1005.8 |
| 20260904225704 | 91 | 128 | 1.0 | 6.0 | 0.00 | 0.04 | 0.04 | 64 | 1005.9 |
| 20260904225604 | 91 | 127 | 0.0 | 6.0 | 0.00 | 0.04 | 0.04 | 65 | 1005.9 |
| 20260904225502 | 91 | 127 | 1.0 | 6.0 | 0.00 | 0.04 | 0.04 | 65 | 1005.9 |
| 20260904225403 | 91 | 127 | 3.0 | 6.0 | 0.00 | 0.04 | 0.04 | 65 | 1005.9 |
| 20260904225306 | 91 | 124 | 4.0 | 6.0 | 0.00 | 0.04 | 0.04 | 64 | 1005.9 |
| 20260904225203 | 91 | 111 | 3.0 | 6.0 | 0.00 | 0.04 | 0.04 | 64 | 1005.9 |
| 20260904225104 | 92 | 110 | 0.0 | 4.0 | 0.00 | 0.04 | 0.04 | 63 | 1005.9 |
| 20260904225003 | 92 | 124 | 0.0 | 4.0 | 0.00 | 0.04 | 0.04 | 63 | 1005.9 |
| 20260904224859 | 92 | 124 | 0.0 | 4.0 | 0.00 | 0.04 | 0.04 | 63 | 1005.9 |
| 20260904224748 | 92 | 124 | 0.0 | 4.0 | 0.00 | 0.04 | 0.04 | 63 | 1005.9 |
| 20260904224641 | 92 | 124 | 0.0 | 4.0 | 0.00 | 0.04 | 0.04 | 62 | 1006.0 |
| 20260904224538 | 92 | 124 | 0.0 | 4.0 | 0.00 | 0.04 | 0.04 | 62 | 1005.9 |
| 20260904224431 | 92 | 124 | 0.0 | 4.0 | 0.00 | 0.04 | 0.04 | 62 | 1005.9 |
| 20260904224332 | 92 | 124 | 2.0 | 4.0 | 0.00 | 0.04 | 0.04 | 62 | 1005.9 |
| 20260904224231 | 92 | 124 | 2.0 | 6.0 | 0.00 | 0.04 | 0.04 | 62 | 1005.8 |
| 20260904224132 | 92 | 106 | 2.0 | 7.0 | 0.00 | 0.04 | 0.04 | 62 | 1005.9 |
| 20260904224033 | 92 | 100 | 2.0 | 7.0 | 0.00 | 0.04 | 0.04 | 62 | 1005.8 |
| 20260904223931 | 92 | 93 | 1.0 | 7.0 | 0.00 | 0.04 | 0.04 | 62 | 1005.8 |
| 20260904223831 | 92 | 92 | 0.0 | 7.0 | 0.00 | 0.04 | 0.04 | 62 | 1005.9 |
| 20260904223732 | 92 | 92 | 0.0 | 7.0 | 0.00 | 0.04 | 0.04 | 62 | 1005.9 |
| 20260904223632 | 92 | 90 | 1.0 | 7.0 | 0.00 | 0.04 | 0.04 | 61 | 1005.9 |
| 20260904223533 | 92 | 90 | 4.0 | 7.0 | 0.00 | 0.04 | 0.04 | 61 | 1005.9 |
| 20260904223423 | 92 | 90 | 4.0 | 7.0 | 0.00 | 0.04 | 0.04 | 61 | 1005.9 |
| 20260904223321 | 92 | 85 | 4.0 | 7.0 | 0.00 | 0.04 | 0.04 | 63 | 1005.9 |
| 20260904223220 | 92 | 85 | 4.0 | 6.0 | 0.00 | 0.04 | 0.04 | 63 | 1005.9 |
| 20260904223120 | 92 | 107 | 4.0 | 5.0 | 0.00 | 0.04 | 0.04 | 62 | 1005.9 |
| 20260904223020 | 92 | 109 | 4.0 | 5.0 | 0.00 | 0.04 | 0.04 | 61 | 1006.0 |
| 20260904222921 | 92 | 104 | 2.0 | 5.0 | 0.00 | 0.04 | 0.04 | 61 | 1006.0 |
| 20260904222820 | 92 | 106 | 1.0 | 4.0 | 0.00 | 0.04 | 0.04 | 62 | 1006.0 |
| 20260904222720 | 92 | 106 | 2.0 | 5.0 | 0.00 | 0.04 | 0.04 | 64 | 1006.0 |
| 20260904222620 | 92 | 107 | 2.0 | 5.0 | 0.00 | 0.04 | 0.04 | 62 | 1006.0 |
| 20260904222521 | 92 | 117 | 2.0 | 5.0 | 0.00 | 0.04 | 0.04 | 62 | 1006.0 |
| 20260904222422 | 93 | 123 | 1.0 | 5.0 | 0.00 | 0.04 | 0.04 | 61 | 1006.0 |
| 20260904222322 | 93 | 123 | 1.0 | 5.0 | 0.00 | 0.04 | 0.04 | 61 | 1006.1 |
| 20260904222223 | 92 | 123 | 2.0 | 5.0 | 0.00 | 0.04 | 0.04 | 61 | 1005.9 |
| 20260904222122 | 92 | 123 | 2.0 | 5.0 | 0.00 | 0.04 | 0.04 | 61 | 1006.0 |
| 20260904222021 | 92 | 138 | 2.0 | 5.0 | 0.00 | 0.04 | 0.04 | 61 | 1006.1 |
| 20260904221922 | 92 | 103 | 3.0 | 5.0 | 0.00 | 0.04 | 0.04 | 61 | 1006.1 |
| 20260904221821 | 92 | 100 | 3.0 | 5.0 | 0.00 | 0.04 | 0.04 | 61 | 1006.1 |
| 20260904221722 | 92 | 133 | 2.0 | 5.0 | 0.00 | 0.04 | 0.04 | 62 | 1006.1 |
| 20260904221621 | 92 | 134 | 2.0 | 5.0 | 0.00 | 0.04 | 0.04 | 62 | 1006.0 |
| 20260904221521 | 92 | 137 | 2.0 | 5.0 | 0.00 | 0.04 | 0.04 | 63 | 1006.2 |
| 20260904221423 | 92 | 130 | 2.0 | 6.0 | 0.00 | 0.04 | 0.04 | 63 | 1006.2 |
| 20260904221320 | 92 | 154 | 1.0 | 6.0 | 0.00 | 0.04 | 0.04 | 63 | 1006.1 |
| 20260904221222 | 92 | 151 | 2.0 | 6.0 | 0.00 | 0.04 | 0.04 | 64 | 1006.2 |
| 20260904221122 | 92 | 120 | 3.0 | 6.0 | 0.00 | 0.04 | 0.04 | 63 | 1006.2 |
| 20260904221021 | 92 | 110 | 3.0 | 6.0 | 0.00 | 0.04 | 0.04 | 65 | 1006.2 |
| 20260904220922 | 92 | 117 | 3.0 | 6.0 | 0.00 | 0.04 | 0.04 | 63 | 1006.2 |
| 20260904220820 | 92 | 127 | 2.0 | 6.0 | 0.00 | 0.04 | 0.04 | 63 | 1006.2 |
| 20260904220723 | 92 | 128 | 2.0 | 6.0 | 0.00 | 0.04 | 0.04 | 63 | 1006.2 |
| 20260904220621 | 92 | 82 | 3.0 | 6.0 | 0.00 | 0.04 | 0.04 | 63 | 1006.2 |
| 20260904220522 | 92 | 83 | 5.0 | 6.0 | 0.00 | 0.04 | 0.04 | 62 | 1006.2 |
| 20260904220419 | 92 | 100 | 5.0 | 6.0 | 0.00 | 0.04 | 0.04 | 63 | 1006.2 |
| 20260904220322 | 92 | 86 | 5.0 | 6.0 | 0.00 | 0.04 | 0.04 | 63 | 1006.2 |
| 20260904220223 | 92 | 109 | 2.0 | 7.0 | 0.00 | 0.04 | 0.04 | 64 | 1006.1 |
| 20260904220122 | 92 | 90 | 0.0 | 7.0 | 0.00 | 0.04 | 0.04 | 64 | 1006.2 |
| 20260904220022 | 92 | 52 | 0.0 | 7.0 | 0.00 | 0.04 | 0.04 | 63 | 1006.1 |
| 20260904215922 | 92 | 54 | 0.0 | 7.0 | 0.00 | 0.04 | 0.04 | 64 | 1006.1 |
| 20260904215822 | 91 | 54 | 0.0 | 7.0 | 0.00 | 0.04 | 0.04 | 64 | 1006.1 |
| 20260904215719 | 91 | 54 | 0.0 | 7.0 | 0.00 | 0.04 | 0.04 | 64 | 1006.2 |
| 20260904215620 | 91 | 54 | 2.0 | 7.0 | 0.00 | 0.04 | 0.04 | 63 | 1006.2 |
| 20260904215521 | 91 | 54 | 4.0 | 7.0 | 0.00 | 0.04 | 0.04 | 63 | 1006.2 |
| 20260904215422 | 91 | 55 | 5.0 | 7.0 | 0.00 | 0.04 | 0.04 | 63 | 1006.2 |
| 20260904215322 | 91 | 59 | 4.0 | 7.0 | 0.00 | 0.04 | 0.04 | 63 | 1006.2 |
| 20260904215220 | 91 | 65 | 3.0 | 6.0 | 0.00 | 0.04 | 0.04 | 63 | 1006.2 |
| 20260904215121 | 91 | 56 | 3.0 | 6.0 | 0.00 | 0.04 | 0.04 | 62 | 1006.2 |
| 20260904215019 | 91 | 58 | 4.0 | 6.0 | 0.00 | 0.04 | 0.04 | 62 | 1006.3 |
| 20260904214920 | 92 | 92 | 3.0 | 6.0 | 0.00 | 0.04 | 0.04 | 62 | 1006.2 |
| 20260904214820 | 92 | 110 | 3.0 | 6.0 | 0.00 | 0.04 | 0.04 | 62 | 1006.1 |
| 20260904214720 | 92 | 86 | 3.0 | 6.0 | 0.00 | 0.04 | 0.04 | 62 | 1006.2 |
| 20260904214620 | 92 | 134 | 1.0 | 4.0 | 0.00 | 0.04 | 0.04 | 64 | 1006.2 |
| 20260904214519 | 91 | 110 | 2.0 | 5.0 | 0.00 | 0.04 | 0.04 | 64 | 1006.2 |
| 20260904214420 | 91 | 96 | 3.0 | 5.0 | 0.00 | 0.04 | 0.04 | 64 | 1006.2 |
| 20260904214319 | 92 | 109 | 2.0 | 5.0 | 0.00 | 0.04 | 0.04 | 64 | 1006.2 |
| 20260904214221 | 91 | 151 | 1.0 | 5.0 | 0.00 | 0.04 | 0.04 | 64 | 1006.2 |
| 20260904214119 | 92 | 151 | 1.0 | 6.0 | 0.00 | 0.04 | 0.04 | 64 | 1006.2 |
| 20260904214019 | 92 | 123 | 1.0 | 6.0 | 0.00 | 0.04 | 0.04 | 64 | 1006.2 |
| 20260904213921 | 91 | 123 | 2.0 | 6.0 | 0.00 | 0.04 | 0.04 | 65 | 1006.3 |
| 20260904213819 | 91 | 123 | 2.0 | 6.0 | 0.00 | 0.04 | 0.04 | 65 | 1006.3 |
| 20260904213719 | 91 | 117 | 3.0 | 6.0 | 0.00 | 0.04 | 0.04 | 63 | 1006.4 |
| 20260904213619 | 91 | 117 | 4.0 | 6.0 | 0.00 | 0.04 | 0.04 | 63 | 1006.4 |
| 20260904213520 | 91 | 157 | 4.0 | 6.0 | 0.00 | 0.04 | 0.04 | 65 | 1006.3 |
| 20260904213420 | 91 | 97 | 3.0 | 6.0 | 0.00 | 0.04 | 0.04 | 64 | 1006.3 |
| 20260904213319 | 91 | 99 | 4.0 | 6.0 | 0.00 | 0.04 | 0.04 | 64 | 1006.3 |
| 20260904213219 | 91 | 109 | 4.0 | 6.0 | 0.00 | 0.04 | 0.04 | 64 | 1006.3 |
| 20260904213119 | 91 | 96 | 3.0 | 6.0 | 0.00 | 0.04 | 0.04 | 65 | 1006.4 |
| 20260904213023 | 91 | 116 | 2.0 | 5.0 | 0.00 | 0.04 | 0.04 | 64 | 1006.4 |
| 20260904212920 | 91 | 109 | 2.0 | 4.0 | 0.00 | 0.04 | 0.04 | 63 | 1006.4 |
| 20260904212820 | 91 | 110 | 3.0 | 4.0 | 0.00 | 0.04 | 0.04 | 64 | 1006.4 |
| 20260904212720 | 91 | 109 | 3.0 | 4.0 | 0.00 | 0.05 | 0.04 | 64 | 1006.4 |
| 20260904212621 | 91 | 111 | 1.0 | 4.0 | 0.00 | 0.05 | 0.04 | 64 | 1006.4 |
| 20260904212521 | 91 | 141 | 0.0 | 3.0 | 0.00 | 0.05 | 0.04 | 64 | 1006.3 |
| 20260904212419 | 91 | 141 | 1.0 | 3.0 | 0.00 | 0.05 | 0.04 | 66 | 1006.3 |
| 20260904212319 | 91 | 141 | 2.0 | 4.0 | 0.00 | 0.05 | 0.04 | 64 | 1006.4 |
| 20260904212221 | 91 | 141 | 2.0 | 5.0 | 0.00 | 0.05 | 0.04 | 65 | 1006.4 |
| 20260904212120 | 91 | 148 | 2.0 | 5.0 | 0.00 | 0.05 | 0.04 | 67 | 1006.4 |
| 20260904212023 | 91 | 152 | 1.0 | 5.0 | 0.00 | 0.05 | 0.04 | 67 | 1006.4 |
| 20260904211919 | 91 | 106 | 1.0 | 5.0 | 0.00 | 0.05 | 0.04 | 67 | 1006.4 |
| 20260904211819 | 91 | 102 | 0.0 | 5.0 | 0.00 | 0.05 | 0.04 | 66 | 1006.4 |
| 20260904211719 | 90 | 102 | 0.0 | 5.0 | 0.00 | 0.05 | 0.04 | 66 | 1006.4 |
| 20260904211620 | 90 | 100 | 1.0 | 5.0 | 0.00 | 0.05 | 0.04 | 66 | 1006.5 |
| 20260904211520 | 90 | 100 | 3.0 | 5.0 | 0.00 | 0.05 | 0.04 | 66 | 1006.5 |
| 20260904211418 | 90 | 100 | 4.0 | 5.0 | 0.00 | 0.05 | 0.04 | 66 | 1006.4 |
| 20260904211318 | 91 | 100 | 3.0 | 5.0 | 0.00 | 0.05 | 0.04 | 67 | 1006.4 |
| 20260904211220 | 91 | 107 | 1.0 | 4.0 | 0.00 | 0.05 | 0.04 | 68 | 1006.4 |
| 20260904211118 | 90 | 113 | 0.0 | 5.0 | 0.00 | 0.05 | 0.04 | 67 | 1006.4 |
| 20260904211020 | 90 | 118 | 0.0 | 5.0 | 0.00 | 0.05 | 0.04 | 68 | 1006.4 |
| 20260904210920 | 90 | 120 | 0.0 | 5.0 | 0.00 | 0.05 | 0.04 | 67 | 1006.5 |
| 20260904210819 | 90 | 120 | 0.0 | 5.0 | 0.00 | 0.05 | 0.04 | 67 | 1006.4 |
| 20260904210720 | 90 | 120 | 0.0 | 5.0 | 0.00 | 0.05 | 0.04 | 67 | 1006.5 |
| 20260904210620 | 90 | 120 | 1.0 | 5.0 | 0.00 | 0.05 | 0.04 | 68 | 1006.6 |
| 20260904210520 | 90 | 120 | 2.0 | 5.0 | 0.00 | 0.05 | 0.04 | 68 | 1006.6 |
| 20260904210419 | 90 | 120 | 3.0 | 5.0 | 0.00 | 0.05 | 0.04 | 67 | 1006.6 |
| 20260904210319 | 90 | 120 | 4.0 | 5.0 | 0.00 | 0.05 | 0.04 | 68 | 1006.7 |
| 20260904210218 | 91 | 102 | 3.0 | 5.0 | 0.00 | 0.05 | 0.04 | 69 | 1006.7 |
| 20260904210118 | 90 | 99 | 2.0 | 3.0 | 0.00 | 0.05 | 0.04 | 69 | 1006.6 |
| 20260904210020 | 90 | 87 | 2.0 | 3.0 | 0.00 | 0.05 | 0.04 | 69 | 1006.7 |
| 20260904205921 | 90 | 149 | 2.0 | 3.0 | 0.00 | 0.06 | 0.04 | 69 | 1006.6 |
| 20260904205818 | 90 | 161 | 2.0 | 3.0 | 0.00 | 0.06 | 0.04 | 68 | 1006.6 |
| 20260904205718 | 90 | 162 | 2.0 | 3.0 | 0.00 | 0.06 | 0.04 | 68 | 1006.7 |
| 20260904205620 | 91 | 164 | 1.0 | 3.0 | 0.00 | 0.06 | 0.04 | 68 | 1006.7 |
| 20260904205518 | 91 | 165 | 1.0 | 3.0 | 0.00 | 0.06 | 0.04 | 69 | 1006.8 |
| 20260904205419 | 91 | 165 | 1.0 | 3.0 | 0.00 | 0.06 | 0.04 | 68 | 1006.7 |
| 20260904205318 | 91 | 165 | 2.0 | 4.0 | 0.00 | 0.06 | 0.04 | 69 | 1006.8 |
| 20260904205218 | 91 | 154 | 2.0 | 4.0 | 0.00 | 0.06 | 0.04 | 69 | 1006.8 |
| 20260904205120 | 90 | 142 | 2.0 | 6.0 | 0.00 | 0.06 | 0.04 | 70 | 1006.8 |